GFSNW_sfc_wetblb_120.txt.gz
Wetbulb
51.18 51.35 51.98 52.47 52.67 51.03 46.65 41.73 33.66 45.19 45.85 34.88 32.28 27.87 34.57 40.38 37.37 39.50 38.61 36.76 35.44 32.97 33.28 31.63 31.17 31.32 34.22 38.70 38.16 33.88 35.18 31.63 24.82 29.58 34.52 36.93 34.64 32.74 31.15 23.10 21.21 23.54 21.31 21.92
52.17 51.19 51.50 52.15 52.56 49.92 42.63 37.67 37.99 45.72 43.08 28.98 26.52 35.01 37.18 38.45 37.30 37.57 37.80 36.51 37.73 36.30 33.15 29.86 32.69 34.06 38.25 39.95 37.39 34.72 35.09 28.74 18.95 22.84 29.10 32.48 32.25 33.46 33.29 30.91 27.63 22.95 19.64 23.47
52.46 51.57 51.75 52.13 52.35 52.35 43.48 38.40 31.06 38.47 38.31 35.95 34.11 33.12 34.38 34.50 39.19 38.47 38.85 37.27 37.52 35.12 32.87 34.36 32.10 33.14 38.11 38.95 38.88 43.60 40.26 30.16 25.70 19.59 23.85 29.34 28.03 30.30 32.25 32.39 22.45 26.08 27.94 30.26
52.46 51.68 51.44 51.82 52.28 52.76 43.00 36.35 32.87 35.75 29.98 34.11 33.81 34.64 35.81 34.76 34.42 37.87 38.06 35.62 35.97 34.13 30.92 31.49 31.52 33.54 35.71 37.40 41.61 37.64 35.58 27.43 26.69 29.59 30.98 31.06 31.31 31.15 31.52 29.29 31.17 25.61 28.77 28.28
51.86 51.79 51.29 51.38 51.70 51.23 40.64 35.81 35.59 35.66 33.68 35.28 33.28 34.52 34.23 35.41 35.97 36.49 34.52 34.18 35.99 35.13 32.50 32.76 30.88 32.96 32.71 33.02 34.78 35.18 35.56 26.70 28.23 23.50 31.40 30.84 28.49 30.57 31.15 31.75 31.94 31.63 32.07 30.94
51.62 51.59 51.22 51.14 51.40 47.30 37.90 38.02 38.23 36.92 35.27 32.76 30.45 32.14 34.27 35.85 36.55 36.94 38.65 36.87 34.50 33.35 35.50 36.42 36.80 36.45 36.05 34.51 34.95 33.28 32.54 28.53 24.86 22.73 26.93 26.71 23.04 27.86 29.23 29.08 30.54 31.40 27.50 33.00
51.61 51.51 51.31 51.20 51.14 46.91 39.95 38.50 38.15 34.14 30.83 31.56 33.08 35.31 36.01 35.48 35.71 33.82 36.82 37.29 35.01 36.58 39.51 38.22 35.45 33.01 33.98 33.38 33.68 36.10 31.20 28.90 25.96 22.58 24.10 14.29 27.47 31.68 32.05 30.52 32.01 33.35 33.60 34.68
51.89 51.24 51.12 51.12 50.87 49.62 40.40 39.39 38.70 34.69 28.73 32.10 33.15 33.34 33.60 35.46 35.60 35.07 36.06 37.43 38.41 38.89 36.36 31.58 27.83 26.33 28.18 30.22 31.41 31.84 33.19 30.03 24.13 19.62 17.93 25.14 29.50 30.09 29.60 28.48 29.64 33.43 33.78 35.33
52.33 51.33 50.90 50.58 50.44 49.90 42.01 38.84 39.26 37.93 32.75 31.22 34.81 33.14 32.60 30.78 28.87 31.70 35.56 38.46 39.33 37.40 33.54 30.14 23.49 22.26 24.01 24.11 26.33 31.84 31.73 31.87 27.42 22.90 20.21 18.76 26.32 31.35 34.77 33.04 25.54 32.78 33.62 33.83
53.05 51.98 50.80 50.38 50.33 49.81 43.10 39.55 39.53 38.67 32.98 35.85 36.25 33.25 32.62 35.13 32.18 30.98 32.21 34.95 35.06 36.79 30.45 28.14 24.98 22.93 26.68 23.39 22.55 24.65 26.81 26.99 27.24 25.84 22.70 26.39 33.76 34.51 34.18 23.90 28.70 33.28 34.28 34.33
53.24 52.93 51.62 50.56 50.10 49.88 44.17 40.77 40.42 37.38 33.59 35.11 38.28 38.50 36.18 36.38 34.95 31.13 33.50 33.58 34.81 33.77 29.89 28.76 28.14 27.03 28.33 25.60 26.20 26.12 25.90 24.72 24.54 26.29 24.08 20.02 34.64 33.35 30.05 33.63 33.10 34.17 34.62 35.04
52.40 53.00 52.84 51.27 49.79 49.53 46.38 38.69 41.61 40.44 35.19 35.87 39.22 39.95 39.99 39.03 39.08 36.00 35.21 33.37 34.69 35.64 30.19 30.75 30.85 29.03 27.97 27.09 25.00 28.75 26.08 30.28 27.63 29.02 28.41 34.59 34.79 35.08 36.98 35.27 34.32 34.74 34.10 36.04
52.04 52.42 53.12 53.15 50.82 49.05 45.41 39.33 39.28 38.15 34.34 34.57 34.80 36.27 38.40 40.04 39.54 40.45 34.41 33.98 36.64 36.23 36.47 33.73 32.24 29.52 29.96 26.74 26.16 26.94 30.82 32.90 29.82 29.60 33.23 35.60 37.10 37.46 36.90 36.69 37.43 37.14 36.53 36.80
52.14 52.04 52.27 52.38 52.60 49.97 47.59 42.46 39.90 37.43 34.62 28.69 33.36 37.96 34.90 37.03 38.01 38.02 38.18 37.18 37.66 37.51 35.61 32.76 30.69 29.61 33.10 28.46 30.11 28.39 31.92 30.93 29.34 30.92 35.55 36.26 37.20 37.15 38.20 37.21 37.01 36.02 36.35 36.58
51.11 50.74 50.86 51.54 51.87 50.98 47.70 44.75 42.70 41.49 34.47 29.66 31.52 34.86 34.29 35.21 35.51 35.49 36.08 36.68 35.50 33.76 31.77 28.44 29.98 31.13 31.56 30.81 30.07 30.61 33.55 32.08 29.11 29.84 35.62 34.48 36.31 36.04 35.82 35.59 35.85 36.84 35.43 34.89
49.93 50.04 50.14 50.98 51.07 49.88 43.88 37.81 39.37 40.56 38.45 30.00 30.42 34.92 31.15 33.11 33.27 34.22 33.94 34.62 33.73 33.24 31.43 29.22 31.20 33.32 32.19 26.81 25.49 32.16 33.29 34.16 36.29 35.63 37.03 35.75 37.38 35.70 35.61 36.49 38.26 36.84 35.58 35.05
49.65 50.19 50.39 50.06 50.52 46.10 41.97 39.92 40.27 43.09 40.32 35.36 32.21 30.03 31.90 32.90 32.36 31.95 31.84 32.61 31.48 31.43 30.37 30.86 29.37 30.71 32.14 30.26 27.33 32.80 33.07 33.54 35.05 36.17 33.99 34.53 35.60 34.76 36.83 35.37 35.68 36.85 35.78 34.96
48.88 49.61 49.58 49.61 50.60 46.84 43.47 43.98 44.80 42.32 37.55 35.22 31.33 28.99 29.22 32.24 29.89 29.32 31.41 31.57 33.39 32.94 32.65 32.62 31.13 31.42 32.06 28.48 31.44 33.19 34.10 33.74 34.25 34.58 34.91 34.59 35.54 34.91 35.19 33.88 33.55 33.28 33.20 33.08
48.72 48.81 47.66 45.02 42.94 40.60 40.61 44.86 43.35 40.41 37.45 32.66 30.11 23.10 25.95 30.72 28.91 29.70 30.18 32.40 28.48 31.50 30.81 30.74 31.86 30.24 26.36 29.64 30.58 31.51 33.44 31.90 33.00 34.08 33.71 33.14 31.44 32.40 32.93 32.12 32.19 31.39 31.57 31.76
48.32 42.38 39.59 34.22 39.38 44.51 42.93 38.25 35.20 34.67 34.74 33.07 29.45 29.18 27.18 29.03 27.43 28.16 27.20 29.10 27.73 25.00 28.49 31.49 28.89 27.58 32.48 33.93 34.61 34.60 34.63 34.33 32.58 26.22 28.42 30.70 30.66 30.42 30.76 31.26 31.77 31.69 31.39 30.61
41.64 37.96 36.00 38.43 43.44 38.49 36.39 32.71 31.49 31.77 29.03 31.90 31.33 30.74 30.24 32.75 30.41 30.30 32.24 25.80 28.81 22.77 26.25 26.12 26.36 23.90 27.47 30.75 31.20 32.65 32.52 31.53 30.14 30.20 30.41 30.28 30.21 29.18 29.93 30.57 30.71 30.16 29.37 28.64
40.04 39.32 39.84 39.08 35.52 32.91 31.03 29.88 30.61 28.70 25.11 27.69 27.61 28.55 30.10 30.52 32.09 29.71 31.75 26.63 27.72 22.10 28.58 25.54 21.26 26.03 29.45 30.23 31.14 31.69 30.14 29.51 31.06 30.70 31.10 31.60 32.00 31.91 30.74 30.43 30.03 28.77 27.72 27.89
40.46 35.56 32.00 32.22 29.72 25.98 25.33 20.31 22.35 21.84 24.77 25.48 25.14 23.14 28.25 28.18 29.99 28.80 28.47 24.20 23.88 26.46 23.87 21.97 23.91 27.66 30.15 30.25 30.43 30.92 32.67 32.67 31.49 31.70 32.15 31.61 31.15 31.91 31.95 32.55 33.47 32.63 31.78 32.06
28.45 26.31 18.04 25.55 18.52 25.50 24.37 21.58 21.22 26.03 24.96 24.83 25.45 22.75 24.60 26.72 25.25 27.05 23.09 24.99 26.04 17.37 13.98 16.66 23.95 26.64 29.51 31.11 31.96 31.43 31.41 30.82 31.15 30.97 31.21 30.70 31.42 31.75 31.99 30.94 31.54 30.69 31.18 31.68
29.71 28.38 21.94 19.84 25.15 18.73 23.17 22.42 22.35 23.72 27.79 27.92 24.79 26.41 28.28 27.12 25.52 27.08 26.17 24.00 21.52 18.43 16.77 22.23 24.32 28.49 30.51 30.87 30.70 30.15 29.72 30.72 32.33 32.11 32.01 32.71 31.55 30.62 31.39 30.86 30.65 30.48 30.88 30.81
31.46 29.75 24.85 28.18 26.82 26.86 25.56 22.32 28.18 27.33 29.15 29.91 29.12 25.52 26.26 25.73 26.12 23.79 21.62 19.56 14.53 19.04 20.98 23.68 23.51 27.83 29.49 30.94 32.10 31.41 31.91 33.09 33.22 32.85 32.61 32.51 31.36 31.04 32.27 29.17 28.34 28.87 29.44 29.56
30.39 28.08 30.96 22.45 18.07 19.90 22.85 27.04 26.15 29.69 30.59 26.78 24.86 24.00 19.90 19.51 22.63 22.62 23.06 16.57 20.90 24.15 27.00 26.62 26.25 27.80 31.56 33.37 33.10 32.68 33.22 33.56 33.74 32.91 33.34 33.28 32.80 28.70 23.26 25.80 31.07 28.23 27.68 28.16

GFSNW_sfc_wetblb_123.txt.gz
Wetbulb
51.92 51.36 51.95 52.63 52.90 50.58 46.34 40.48 33.53 44.43 44.05 33.51 30.48 27.54 33.69 39.64 36.32 38.82 37.63 35.78 34.24 31.84 31.59 30.36 29.61 29.70 32.93 37.60 36.86 32.73 33.64 30.23 23.94 29.33 33.13 34.93 33.23 31.59 30.02 22.91 20.46 22.64 20.32 21.39
52.69 51.63 51.62 52.30 52.70 50.68 41.82 37.25 37.32 44.20 40.57 27.40 25.72 33.42 36.11 37.09 36.32 36.45 36.40 35.45 36.58 35.10 32.32 28.89 31.09 32.75 37.45 38.20 35.93 33.22 33.52 27.57 17.87 22.10 27.60 31.72 30.83 32.12 31.95 28.96 26.32 21.85 18.45 23.77
52.63 52.02 51.86 52.35 52.56 52.43 42.37 36.36 30.90 37.37 37.26 34.26 33.11 32.20 32.88 33.50 38.10 37.29 37.67 36.07 36.07 34.23 31.96 33.37 30.58 32.33 36.88 37.44 37.62 43.28 39.31 28.67 25.04 19.07 23.03 28.21 28.46 29.52 31.80 30.71 22.03 24.39 26.86 29.84
52.72 52.15 51.51 51.94 52.04 52.84 41.73 34.78 32.81 34.55 29.03 33.64 32.64 32.81 34.70 33.40 33.18 36.76 36.87 34.71 34.80 33.66 29.22 30.53 30.35 32.69 34.50 36.44 41.07 36.02 34.66 26.83 25.37 28.26 29.52 29.36 30.02 29.79 29.51 29.19 31.77 26.39 28.55 27.53
52.45 52.08 51.51 51.41 51.34 50.68 39.51 35.35 34.57 33.93 32.49 33.87 31.92 33.84 31.80 33.73 34.52 34.76 33.24 33.17 34.83 34.23 31.47 32.13 30.59 32.34 32.23 32.13 33.40 34.32 34.06 26.62 27.14 23.25 30.15 29.27 28.20 30.09 30.63 30.86 31.17 30.74 31.45 30.37
52.25 51.91 51.57 51.13 51.01 45.48 37.15 37.15 37.25 36.55 33.88 31.11 29.01 30.79 33.04 34.32 35.44 35.54 36.77 35.60 33.76 32.82 35.00 35.80 36.05 35.73 35.00 33.54 34.19 32.65 31.66 28.18 24.80 22.48 26.24 26.27 21.99 26.29 28.53 28.66 29.60 30.70 27.15 32.49
52.51 51.99 51.67 51.43 51.06 45.32 39.52 37.42 37.16 33.23 30.26 30.78 32.12 34.42 34.77 34.17 34.96 32.87 35.65 36.40 33.46 35.61 38.60 37.40 33.96 30.87 32.79 32.30 33.29 35.07 29.88 28.18 25.59 22.26 23.39 14.38 26.28 30.80 31.37 29.88 30.74 32.57 32.55 33.71
52.73 51.96 51.65 51.58 50.99 48.36 39.36 38.05 37.78 33.33 28.31 31.55 31.92 32.28 32.91 33.43 33.18 33.85 35.00 36.28 37.24 37.81 35.15 30.62 27.35 24.99 27.21 28.46 30.07 30.56 32.05 29.88 23.99 18.71 16.60 24.35 27.99 28.66 28.56 27.77 29.04 32.64 33.29 35.11
53.07 52.27 51.52 51.27 50.91 49.35 40.38 38.07 38.37 36.91 31.57 32.21 34.24 33.05 32.27 30.53 28.77 30.59 34.49 37.63 38.56 36.55 32.19 29.00 22.41 21.76 22.25 23.02 24.90 30.48 30.80 30.75 26.71 23.05 20.05 17.74 25.63 30.41 33.57 31.51 24.68 31.47 32.89 32.91
53.09 52.96 51.86 51.10 50.64 49.67 42.22 39.10 39.53 37.36 32.15 34.30 34.98 33.04 32.25 34.17 31.46 30.46 31.03 34.39 34.17 35.43 29.72 27.65 24.64 23.15 25.70 22.96 22.30 25.02 25.91 25.60 25.98 25.49 23.01 26.73 32.66 33.95 34.10 24.47 27.99 31.64 32.72 33.50
52.46 53.02 52.72 51.46 50.54 49.75 43.83 41.06 39.90 36.75 33.36 35.45 37.82 38.15 35.77 35.44 33.41 30.13 32.35 32.33 32.99 31.91 28.76 27.63 26.76 25.27 26.93 23.97 24.93 25.86 25.88 23.75 24.61 25.69 22.73 20.81 33.82 32.16 29.93 33.29 32.51 33.06 33.98 34.77
52.20 52.15 52.83 52.52 50.68 49.59 44.51 38.97 41.00 40.08 34.65 36.48 38.16 39.37 39.04 37.93 37.28 35.33 33.58 31.86 33.51 34.36 29.07 28.11 28.04 27.76 27.06 26.46 23.62 26.59 24.49 28.68 26.44 28.38 28.19 33.60 33.32 33.89 35.60 34.59 33.59 34.68 34.77 38.13
51.92 52.14 52.52 52.60 52.27 49.53 45.53 40.42 41.21 38.23 33.91 34.40 34.26 35.12 37.62 39.90 39.20 39.91 33.98 33.83 35.86 35.44 35.51 32.48 31.24 29.35 29.73 26.62 25.45 26.10 29.31 31.06 28.52 29.23 31.75 34.30 36.14 36.71 36.67 37.61 36.28 37.73 37.62 36.40
52.07 51.45 51.33 51.61 52.03 51.33 47.52 43.39 41.53 40.26 35.14 28.71 33.42 37.60 35.02 36.14 37.16 37.90 38.23 37.07 37.72 37.25 35.98 33.61 31.60 30.47 33.04 28.91 30.37 28.80 31.94 30.37 28.39 28.37 34.09 33.83 35.25 35.09 35.63 36.16 36.42 35.44 36.34 35.25
51.42 50.69 50.22 50.55 51.38 51.74 48.19 45.21 43.46 41.94 35.43 29.61 31.84 35.03 33.98 35.00 35.38 35.25 35.76 36.51 35.13 33.32 31.41 28.20 29.06 31.07 31.77 30.71 29.21 28.16 32.76 31.08 28.31 28.52 33.18 31.95 34.83 37.70 37.53 35.63 35.88 36.09 35.11 36.14
49.67 49.72 49.99 50.39 50.68 48.90 44.45 40.29 40.16 40.92 38.81 30.94 31.43 35.01 31.17 33.39 33.93 34.03 33.70 34.36 33.64 32.21 30.80 29.03 30.15 32.12 31.21 26.17 25.06 32.03 32.69 33.42 33.67 31.76 34.54 34.49 35.39 35.96 35.18 33.94 35.75 35.91 35.45 35.31
49.00 49.57 50.06 49.86 50.05 44.89 42.65 40.55 40.27 42.96 40.54 35.58 33.30 32.43 32.41 33.51 32.29 32.08 31.72 32.36 31.49 31.32 29.85 28.94 28.74 30.49 31.95 28.54 26.10 32.22 32.81 33.40 34.12 34.95 32.52 31.72 32.40 32.50 34.77 34.37 34.30 35.30 33.79 33.23
47.74 49.12 48.83 49.51 50.15 47.10 43.38 43.76 44.84 42.41 38.20 35.38 32.11 30.79 30.13 32.80 29.98 29.67 31.89 31.54 33.02 33.02 31.41 32.83 29.34 30.20 29.74 27.43 30.90 32.35 33.22 33.44 33.16 32.58 32.24 32.32 33.43 32.70 32.29 32.24 31.62 30.99 31.48 31.62
48.35 47.58 47.12 42.29 41.68 38.28 40.16 45.03 43.34 40.64 37.85 33.01 31.27 23.76 23.81 31.22 29.73 30.63 31.00 31.43 28.13 31.44 30.11 29.84 31.19 28.68 27.08 30.27 30.74 31.97 32.30 31.04 32.09 33.00 31.53 30.40 29.16 29.84 29.97 29.62 30.67 29.83 30.64 30.99
47.33 41.02 37.52 34.33 39.33 44.66 42.71 38.57 35.55 34.86 34.89 33.53 30.11 29.95 26.52 28.72 27.58 28.28 28.35 29.57 28.05 24.13 28.27 31.72 28.71 27.68 32.81 33.73 34.10 34.51 34.48 33.84 32.04 25.64 29.74 30.81 30.36 30.85 30.86 30.64 31.37 30.58 30.96 30.51
39.27 36.90 34.91 38.43 43.50 38.68 36.52 32.75 31.47 32.10 29.83 32.29 31.27 30.79 30.02 31.45 30.68 29.33 31.32 26.19 28.60 21.16 24.88 26.25 25.80 25.03 28.36 31.75 32.01 33.28 33.20 32.60 31.74 30.51 30.52 30.06 29.52 29.37 30.24 31.64 32.61 31.43 30.89 30.57
39.89 38.70 40.00 39.11 35.53 32.93 30.54 29.34 30.83 29.26 25.82 27.41 28.57 28.86 30.47 31.24 32.35 28.46 31.41 25.20 26.93 19.88 25.85 22.80 19.27 26.30 30.11 30.99 31.66 31.64 31.36 30.38 29.56 29.68 30.72 32.54 32.33 31.76 31.03 30.99 31.71 32.15 30.46 30.94
39.71 35.20 32.62 31.76 29.64 25.23 24.51 14.63 25.64 24.41 23.01 24.26 28.20 26.17 27.53 28.13 28.81 26.28 29.10 24.86 22.63 26.24 20.60 19.03 22.20 26.95 29.94 29.67 29.30 29.89 31.69 31.74 30.94 30.95 31.67 31.11 30.44 31.79 29.80 31.27 32.60 31.64 30.78 31.65
28.37 25.26 23.03 23.09 15.19 23.33 20.63 19.65 18.08 23.87 24.19 24.77 25.08 22.88 24.55 26.06 23.37 25.40 25.09 24.77 24.36 18.26 17.17 15.02 20.72 25.62 27.76 28.76 30.85 31.11 30.94 29.92 29.52 29.36 29.11 28.65 28.96 31.07 31.67 30.90 31.45 30.74 30.18 31.12
25.04 25.76 19.17 15.00 22.00 17.27 23.06 24.21 22.27 27.66 28.85 28.36 25.38 26.18 23.48 20.44 21.64 26.22 25.56 23.43 20.86 22.12 14.49 19.40 21.35 26.11 27.76 28.53 29.33 29.24 28.72 27.93 26.38 25.56 26.35 28.88 27.62 29.88 31.44 32.38 31.96 30.66 30.22 30.25
31.31 29.34 25.12 26.21 21.94 13.95 18.88 25.67 29.57 28.34 29.22 30.03 29.28 25.44 25.45 24.58 24.60 23.44 21.74 20.03 16.04 18.21 19.18 22.17 21.93 26.13 26.52 27.62 30.77 30.68 31.30 32.18 32.14 32.28 30.97 30.85 30.58 31.13 31.92 32.83 32.07 30.55 30.47 29.95
29.49 26.85 28.60 23.03 17.86 20.28 23.85 27.14 26.99 29.11 29.34 23.24 24.57 24.02 21.69 18.09 20.53 21.70 23.29 15.48 19.14 21.88 22.99 24.41 25.18 26.67 30.76 31.85 32.34 32.22 31.57 31.47 31.87 31.47 31.15 30.71 31.82 31.54 30.23 28.52 31.15 31.44 31.18 30.79

GFSNW_sfc_wetblb_129.txt.gz
Wetbulb
52.72 52.36 52.29 52.52 51.43 50.96 45.51 38.17 33.52 42.95 41.34 32.41 29.53 26.72 32.39 38.32 35.05 37.23 35.53 34.40 32.15 30.28 30.69 28.58 28.04 29.40 32.02 36.68 36.27 31.92 33.19 28.88 24.57 29.13 32.24 33.79 32.81 30.85 29.09 24.47 21.07 23.39 21.76 23.41
53.20 52.51 52.12 51.89 52.40 49.71 40.56 36.17 36.10 41.97 37.85 26.78 25.14 32.00 34.35 35.14 34.93 35.04 34.69 33.44 34.50 33.67 31.43 28.41 29.68 31.43 35.73 36.88 35.05 32.79 32.97 26.56 17.01 22.23 27.13 31.90 30.83 31.27 30.90 27.06 25.97 21.70 20.47 25.27
53.15 52.75 52.39 51.75 52.91 51.03 40.13 34.17 29.76 35.33 35.04 32.03 31.05 30.81 31.13 32.28 36.83 35.43 36.14 34.44 34.83 32.64 29.91 31.38 29.34 30.21 35.52 36.02 35.86 41.57 37.20 27.65 24.12 20.34 23.38 28.26 28.61 30.24 30.60 29.78 23.13 24.02 25.06 29.13
53.16 52.68 52.21 50.89 53.06 49.99 40.46 34.14 32.01 32.32 27.17 32.16 30.16 30.41 31.98 31.65 31.79 35.25 35.33 32.63 32.82 31.38 27.53 28.41 28.05 31.21 32.87 35.39 40.56 34.89 33.28 26.93 25.08 27.44 28.10 28.44 28.71 29.05 29.84 28.54 29.70 27.14 27.04 27.46
52.81 52.57 52.12 51.16 51.31 48.25 37.61 34.49 33.35 32.15 31.19 31.42 28.68 31.78 29.95 31.37 32.46 33.30 31.25 31.73 33.57 32.60 29.74 30.37 28.98 31.28 31.38 31.42 32.48 33.07 32.66 26.20 27.59 25.46 29.04 28.70 27.54 29.22 28.55 29.66 30.67 30.54 31.36 30.51
52.77 52.43 52.07 51.23 48.76 44.67 37.14 35.49 35.62 34.82 31.97 29.66 27.81 28.48 31.03 32.78 33.80 34.25 34.69 33.60 32.00 30.85 33.62 34.47 33.65 33.96 33.24 32.91 33.22 31.44 30.92 28.06 24.79 22.21 25.85 25.35 22.29 25.07 27.95 28.97 29.32 30.05 26.68 31.90
52.98 52.38 52.10 51.61 49.44 44.39 39.16 36.29 34.79 31.77 29.31 29.47 30.37 32.71 33.84 33.32 33.02 31.50 33.86 34.18 30.74 33.45 36.58 35.27 32.63 31.75 31.42 31.43 30.97 33.05 28.67 28.05 26.17 21.87 23.05 15.50 26.48 28.80 30.02 29.88 30.60 31.76 31.83 32.84
52.95 52.48 51.95 51.70 48.74 46.35 38.35 36.54 35.94 32.13 28.67 29.43 30.62 30.99 31.59 32.06 31.82 32.13 33.89 34.74 35.23 35.61 33.34 29.77 26.62 23.82 25.67 26.54 28.29 28.67 30.92 28.99 23.34 18.89 17.18 23.93 25.60 28.16 27.98 27.96 29.35 31.59 32.01 33.79
52.39 52.68 52.06 51.30 50.49 46.24 38.88 36.73 36.96 34.71 33.85 32.76 31.93 31.67 31.51 29.95 27.50 29.75 32.24 36.13 36.84 34.99 30.41 28.49 22.07 21.43 21.80 22.79 24.07 28.84 30.24 29.37 25.91 22.14 18.74 18.80 25.75 29.30 32.37 31.03 25.85 31.40 32.23 32.82
52.20 52.49 52.43 51.51 50.72 47.68 40.51 38.11 37.08 36.20 33.95 34.62 33.34 31.71 31.35 32.28 29.69 28.84 28.91 32.37 33.58 33.71 29.22 26.91 23.95 21.80 24.45 21.91 22.10 24.31 27.07 27.33 25.57 23.75 21.80 25.39 31.06 32.43 33.25 24.58 27.19 32.25 32.58 33.38
52.43 51.97 52.36 52.01 50.76 48.99 42.26 39.04 38.63 38.55 34.22 35.28 36.36 36.81 33.84 33.50 32.13 30.25 31.35 32.22 31.88 30.60 28.41 27.08 26.19 24.96 25.06 22.51 23.65 25.03 24.65 24.59 25.14 27.23 24.16 20.15 32.71 32.03 28.65 31.10 32.46 33.44 33.82 33.83
52.09 51.80 51.98 52.37 51.16 50.19 44.31 39.31 39.46 38.51 36.59 37.14 35.99 37.27 37.31 36.73 35.99 33.90 32.25 31.55 31.14 33.20 28.80 27.85 27.51 27.11 25.19 24.72 24.56 27.01 24.47 28.04 25.67 27.14 27.02 32.43 32.46 32.67 34.52 34.10 33.62 33.69 32.77 34.64
51.88 51.61 51.36 51.19 51.74 49.67 46.29 39.89 38.91 37.44 34.66 34.89 34.10 33.39 35.04 38.19 37.56 38.02 32.66 32.28 34.59 33.47 33.68 30.49 29.15 28.04 28.59 25.08 25.03 26.51 29.28 30.15 27.78 27.67 30.11 31.41 34.17 34.09 34.57 34.53 33.41 34.08 34.25 33.70
52.09 51.51 50.48 50.06 50.70 50.85 48.09 44.01 41.96 41.15 36.71 32.30 33.02 36.25 32.25 34.66 35.34 36.32 36.69 35.52 35.90 35.23 34.34 31.95 30.35 29.43 32.09 28.88 29.85 28.75 31.98 30.01 28.48 27.73 32.12 33.59 33.37 34.26 33.71 33.40 33.15 32.70 33.23 33.04
52.00 50.98 49.76 49.47 50.58 50.94 46.97 44.94 43.50 42.32 39.20 32.45 32.97 34.88 33.63 34.47 34.59 34.30 34.99 36.08 34.63 32.99 29.90 27.23 29.99 31.35 30.28 29.41 28.75 28.47 32.79 32.03 28.73 28.08 30.91 31.64 32.50 34.31 34.35 32.74 32.75 33.28 32.46 32.91
50.46 49.33 49.33 49.94 50.04 48.49 44.57 38.03 39.59 40.05 37.89 31.47 30.49 33.84 31.38 33.81 34.04 33.66 33.12 33.89 32.84 32.18 30.97 29.38 29.65 31.57 31.74 28.52 25.75 31.98 32.96 33.15 33.76 32.36 33.72 33.67 34.40 33.89 33.27 31.93 32.89 33.42 33.87 33.55
48.85 49.07 49.70 49.78 48.76 44.65 39.31 37.65 39.74 42.40 39.45 33.62 32.02 29.79 31.55 31.88 31.31 31.07 31.34 31.66 30.64 30.93 31.54 30.72 30.63 30.92 31.63 28.29 25.85 32.30 32.51 33.15 32.02 32.35 31.62 30.81 31.71 31.59 32.96 32.17 32.50 33.51 32.32 32.24
48.62 48.99 48.59 49.36 48.65 46.56 41.23 43.48 44.38 42.57 37.29 33.76 31.73 30.88 28.50 30.85 28.77 28.28 29.70 29.21 29.22 29.98 29.19 31.23 28.80 29.21 28.98 27.76 30.05 31.32 31.78 31.09 30.40 30.18 30.50 31.06 31.31 30.42 30.24 30.74 30.20 29.46 29.90 30.72
48.41 46.98 46.15 41.53 38.63 37.16 39.88 44.96 42.90 40.83 36.68 33.21 32.39 28.57 22.63 29.97 27.82 28.57 28.91 28.77 28.12 30.55 29.78 29.66 30.72 26.90 25.45 29.15 30.06 30.19 30.00 28.81 28.84 29.99 29.11 28.44 27.54 28.31 28.45 28.52 28.50 27.68 29.11 30.19
46.03 40.86 34.59 31.87 38.49 44.62 42.94 38.80 35.88 35.40 35.31 34.00 30.78 30.76 27.47 27.24 25.47 26.34 25.39 26.74 24.73 23.38 26.71 30.66 28.98 26.32 30.01 31.69 32.78 32.13 31.23 30.37 28.88 22.22 25.97 26.09 26.65 27.44 27.45 27.60 28.31 28.40 28.93 29.67
38.65 34.65 30.99 37.53 43.80 38.88 36.15 31.78 29.19 32.03 29.79 32.52 31.61 31.22 24.37 29.39 26.72 27.30 28.41 29.21 29.09 23.08 24.77 25.62 22.19 23.20 26.34 29.05 29.08 32.25 30.10 30.49 29.14 28.83 29.06 28.54 27.87 27.40 28.38 29.16 29.77 29.75 29.48 28.67
38.55 37.57 39.90 38.72 34.72 32.38 27.65 24.92 26.89 27.66 25.08 29.17 29.18 30.10 31.27 31.70 31.98 31.51 31.83 28.58 27.36 21.98 25.35 24.11 18.38 21.92 26.81 27.40 28.31 28.68 29.67 28.72 29.23 29.53 29.18 29.29 28.95 29.02 28.35 27.73 28.14 28.68 29.26 28.92
37.20 33.10 28.44 28.65 23.45 22.39 17.54 15.74 16.00 23.95 28.52 29.16 29.15 28.24 29.45 30.17 31.47 30.45 29.67 25.24 23.87 26.01 23.93 17.82 18.66 24.30 26.53 26.95 27.83 28.06 28.56 28.53 28.16 28.10 28.29 28.34 28.06 28.59 27.86 28.45 29.57 29.83 29.52 30.01
29.68 23.38 18.29 18.32 8.34 16.98 18.48 17.40 17.77 23.53 23.47 25.67 28.81 28.11 28.13 28.75 28.07 29.24 24.96 26.62 24.99 20.37 15.12 13.71 17.85 22.76 26.15 26.68 27.53 26.74 26.83 27.55 27.17 26.54 26.35 26.41 27.26 27.50 27.99 27.63 28.52 28.29 27.63 28.87
25.63 21.44 13.96 14.96 20.55 15.66 20.45 17.39 22.95 28.05 28.68 27.85 27.68 27.51 25.54 24.65 23.00 26.12 26.66 22.19 19.15 20.65 13.84 17.99 18.66 24.38 25.41 25.92 25.85 25.23 24.76 24.80 22.85 23.22 22.27 23.07 22.82 23.79 27.03 29.28 29.75 29.35 29.35 29.22
28.13 21.94 19.41 20.55 14.87 12.29 23.25 26.28 23.80 24.99 27.16 29.41 29.55 27.16 25.16 24.52 25.36 22.58 21.97 19.94 11.43 17.03 18.82 21.85 21.25 24.67 24.64 24.87 26.84 27.12 26.92 25.65 27.25 28.12 27.18 27.03 26.52 27.35 28.20 29.39 29.57 29.53 29.24 28.69
26.32 24.80 28.83 21.55 16.09 17.56 19.69 23.19 25.28 28.02 27.08 23.57 26.45 22.79 19.30 17.49 21.76 20.85 19.67 14.30 17.86 20.12 20.93 21.98 23.64 25.45 26.22 25.88 26.54 26.98 26.89 27.38 28.83 28.59 27.95 26.93 28.15 28.07 27.42 26.69 28.61 29.18 29.46 29.42

GFSNW_sfc_wetblb_135.txt.gz
Wetbulb
54.08 52.89 52.91 52.56 52.05 52.61 48.19 51.32 45.56 51.37 52.09 45.77 45.26 40.47 40.67 41.38 41.56 43.85 42.00 41.72 40.50 39.63 39.40 38.23 38.28 37.41 40.19 43.31 43.22 39.32 41.33 39.33 34.84 36.10 39.27 40.64 40.24 38.57 38.75 33.48 31.68 33.26 32.16 32.54
53.90 53.08 51.96 53.42 52.12 50.07 51.85 48.43 47.93 51.30 48.84 42.35 40.65 41.15 40.24 41.91 41.27 41.45 41.25 40.09 41.60 41.81 39.52 36.59 39.10 39.41 42.25 42.98 42.17 40.14 41.49 36.88 31.80 32.05 35.63 38.42 36.52 38.33 39.12 38.55 36.05 32.32 30.55 34.83
53.76 53.36 51.89 53.14 52.16 49.42 49.36 47.64 44.66 47.75 48.42 46.40 42.93 40.34 39.60 39.25 42.89 41.96 42.38 41.24 42.36 40.85 38.99 40.39 38.06 38.79 40.98 42.44 42.42 41.58 41.92 37.52 34.89 32.86 32.61 37.78 34.28 36.56 38.03 36.91 32.61 33.25 34.00 36.45
53.75 53.20 52.16 50.42 51.95 49.84 49.59 47.66 43.23 43.17 42.96 42.43 42.63 42.62 41.21 39.03 38.58 42.27 42.74 40.40 40.53 40.00 37.15 38.03 37.52 39.64 39.92 41.48 42.10 41.95 40.94 34.55 35.04 35.91 36.78 36.25 34.89 35.46 36.64 34.71 35.85 33.00 35.67 36.49
53.38 52.85 52.57 50.64 49.29 50.42 49.69 46.87 45.66 45.08 43.20 42.01 42.05 40.06 39.86 39.09 39.26 40.80 39.28 38.79 40.43 40.84 38.21 38.86 37.25 39.63 40.11 39.44 41.76 40.57 41.08 34.62 35.24 32.12 36.85 35.93 33.42 35.94 36.03 36.41 36.64 36.34 36.68 35.99
53.20 52.89 52.35 51.61 49.35 47.40 50.61 47.53 47.15 46.24 39.06 41.19 40.69 40.83 40.37 39.88 41.83 41.32 42.13 41.30 40.73 39.24 40.76 42.49 42.78 42.94 42.26 42.07 40.72 39.63 38.78 36.58 33.52 30.24 33.79 33.95 30.46 34.76 35.51 36.14 37.49 37.07 33.31 38.96
52.88 52.95 52.41 51.73 49.35 49.17 51.01 47.63 47.05 45.18 41.10 41.36 40.58 40.40 41.36 40.40 41.06 39.46 41.68 42.43 40.96 41.75 44.98 43.79 42.92 42.09 41.15 41.61 41.12 42.47 38.01 36.46 35.33 30.74 33.18 25.19 34.12 37.86 38.98 37.40 38.00 39.33 38.82 39.66
52.35 52.70 52.39 51.57 49.33 48.71 48.96 47.82 47.46 47.11 43.42 42.84 39.65 40.23 40.85 41.02 41.30 40.43 40.64 42.23 43.42 45.66 42.66 38.01 35.18 34.07 34.38 36.03 37.28 38.58 40.09 37.75 32.75 29.07 30.04 35.02 35.91 34.91 34.93 35.13 34.59 38.97 38.80 39.58
51.84 52.18 52.29 51.63 50.04 47.71 49.81 46.69 46.32 47.24 45.96 43.61 42.00 40.73 41.37 41.60 40.37 38.64 39.92 42.86 44.42 43.29 40.80 36.99 32.20 31.40 33.24 30.79 31.51 36.03 37.55 38.21 34.23 30.69 25.96 27.88 33.42 37.22 39.81 39.27 32.39 38.29 38.33 38.43
51.79 51.70 52.09 51.48 50.86 48.39 50.47 46.87 46.33 46.88 45.28 45.38 43.27 42.68 42.53 42.79 41.24 41.20 39.71 40.63 40.23 42.22 38.19 34.54 34.12 33.84 34.43 30.99 30.76 30.03 31.44 32.86 30.17 30.88 28.91 33.49 38.73 39.11 39.72 31.13 32.52 38.89 39.03 38.51
52.43 51.65 51.80 51.38 50.83 49.27 49.65 47.24 47.12 46.21 45.17 45.40 42.70 43.12 42.01 41.43 42.15 41.32 40.20 40.08 39.58 39.01 36.00 35.94 36.17 33.21 35.03 32.76 35.16 32.77 32.51 31.02 30.32 32.57 29.92 26.81 39.85 38.02 34.47 37.56 39.88 38.69 38.11 37.69
52.89 51.84 51.47 51.47 50.85 49.73 48.42 48.39 47.06 45.90 45.24 43.88 42.62 42.97 43.04 42.34 41.64 42.72 42.24 40.37 39.85 42.62 38.47 37.79 37.97 34.15 35.04 35.09 33.34 36.75 31.47 36.84 35.65 35.67 35.92 39.93 41.30 40.18 40.55 39.55 37.92 37.77 37.30 38.02
52.92 52.30 51.66 50.87 51.01 49.70 49.47 48.06 46.59 46.56 43.86 43.65 42.27 41.15 41.43 43.32 42.17 43.50 40.50 41.49 41.73 41.04 42.09 40.58 38.99 34.34 38.29 34.46 34.92 36.10 37.12 39.99 35.40 35.18 39.38 39.80 40.72 41.03 39.18 39.12 38.00 37.82 38.21 37.66
53.20 52.65 51.87 50.86 50.26 50.02 49.08 48.04 47.61 46.05 42.74 38.49 39.38 41.55 39.53 40.87 41.82 41.82 42.69 41.68 42.29 43.18 42.97 40.12 38.45 35.62 39.87 36.92 36.56 35.49 38.08 36.53 35.78 35.80 38.82 38.53 39.59 38.62 38.24 37.60 37.75 37.02 37.43 37.25
53.12 52.54 51.86 50.52 50.08 50.19 49.30 48.65 47.49 46.48 43.44 38.79 39.77 39.89 38.48 40.00 40.20 40.07 41.08 41.55 41.59 41.29 38.64 38.00 35.99 38.78 37.11 38.31 35.45 34.22 37.15 36.75 34.75 34.91 39.61 39.41 38.57 38.41 38.00 36.43 35.67 35.99 35.74 35.44
52.28 51.72 50.91 49.92 50.49 48.65 47.58 43.35 45.33 45.55 44.66 40.06 36.30 38.90 37.20 38.55 39.66 39.03 38.79 40.34 40.15 40.25 38.64 38.15 39.17 37.75 37.19 34.17 33.31 39.03 40.31 40.04 40.71 39.18 41.09 39.43 38.89 38.39 37.37 35.78 35.58 36.04 35.82 35.84
51.82 51.23 50.20 50.14 49.73 48.30 43.53 41.13 43.57 44.41 44.99 40.82 36.19 36.71 35.79 37.20 37.20 37.44 37.66 38.34 38.53 38.72 37.95 35.80 36.54 36.12 36.91 34.48 32.06 39.27 38.85 40.08 39.84 39.90 38.93 35.89 36.65 35.38 36.66 36.31 36.39 36.78 36.47 36.58
51.42 50.17 50.08 49.46 47.81 46.03 43.59 45.16 45.03 44.75 42.39 40.96 33.63 34.16 34.26 35.73 34.08 33.87 36.76 35.93 37.05 36.54 36.13 35.45 33.71 35.13 34.07 30.30 36.20 39.21 39.95 38.90 36.96 36.31 37.75 37.33 36.82 36.44 36.03 36.36 35.90 34.29 34.16 34.96
49.91 49.93 48.56 44.60 42.36 40.60 41.54 44.76 43.93 45.01 41.71 34.46 33.70 31.66 32.26 35.02 33.34 34.49 34.09 35.74 31.11 34.79 32.40 32.91 33.95 32.27 29.18 33.86 36.38 37.46 37.73 34.30 34.23 35.78 36.05 35.75 34.52 34.40 34.53 34.54 34.29 33.23 33.25 34.04
48.26 43.30 38.75 35.20 40.10 44.86 43.65 40.73 37.70 38.20 38.80 36.94 31.27 35.80 31.60 34.79 33.18 32.37 32.69 33.02 31.18 27.95 31.08 33.69 30.49 29.59 35.69 37.28 38.17 38.67 38.08 36.44 36.21 31.13 31.60 33.07 32.51 33.12 33.44 33.23 33.94 33.87 33.89 34.14
40.24 35.33 34.28 40.47 44.62 40.63 37.32 32.38 31.65 32.16 30.51 32.60 33.00 34.12 32.24 35.13 32.32 32.51 33.68 30.64 31.03 25.74 29.31 27.94 27.90 27.78 33.11 37.10 37.16 37.81 37.65 36.81 35.97 35.52 35.07 35.00 34.30 33.46 33.06 33.28 34.03 34.05 33.67 32.30
39.24 38.99 41.18 40.06 36.27 33.34 29.57 28.45 29.78 28.01 27.67 32.63 30.87 31.83 33.98 33.97 35.82 33.16 31.72 29.04 29.17 24.00 31.18 27.24 24.11 31.18 33.66 33.99 35.84 35.62 36.53 35.88 35.24 35.40 34.35 34.25 33.89 34.17 33.90 33.27 32.42 32.39 32.49 31.92
39.89 35.16 32.36 31.58 30.71 25.71 23.30 20.81 24.24 26.27 30.46 32.04 31.68 29.86 32.95 32.95 33.51 31.86 30.72 27.37 27.18 31.04 26.22 24.05 28.63 32.23 32.97 33.83 34.40 35.83 36.65 35.13 34.24 33.75 33.91 33.74 33.52 34.20 33.51 32.85 33.92 34.01 33.27 33.57
32.93 30.06 24.33 25.89 23.26 25.14 27.31 26.60 28.70 31.31 33.48 32.23 32.40 30.80 30.65 31.88 29.66 31.36 27.10 29.73 28.55 23.51 21.25 22.50 31.63 32.51 33.43 33.50 34.08 32.82 33.01 33.67 33.11 31.49 31.01 31.16 31.45 31.76 32.71 33.15 33.60 32.76 32.04 32.70
30.47 29.63 23.47 24.49 27.67 27.08 28.42 29.13 29.76 30.43 34.44 32.55 30.93 30.62 31.23 29.12 28.47 28.87 29.27 24.20 21.32 23.23 23.45 29.83 33.29 32.15 33.89 33.23 33.37 33.64 33.61 33.27 32.03 32.22 30.77 29.42 29.67 30.64 31.60 32.98 33.34 32.99 32.44 32.04
30.42 27.71 24.56 25.35 25.99 25.47 27.05 28.96 30.13 32.34 33.27 33.68 33.12 29.12 27.30 26.72 27.62 25.47 23.97 24.04 21.74 25.74 31.14 33.91 33.43 32.62 32.71 33.77 34.35 34.60 34.93 34.55 34.74 33.46 32.07 31.25 30.78 31.05 32.02 33.06 32.62 32.04 31.58 30.86
27.70 26.67 29.77 28.01 26.97 27.98 28.24 30.02 30.88 34.02 32.72 30.05 29.15 24.81 24.17 26.48 24.08 24.11 27.77 25.55 29.23 32.47 33.16 33.72 33.51 32.81 33.52 35.16 35.65 35.19 34.44 34.23 34.01 32.71 32.96 32.05 32.26 31.90 30.85 29.34 30.73 31.29 31.47 31.22

GFSNW_sfc_wetblb_138.txt.gz
Wetbulb
54.16 52.88 53.21 52.70 52.44 52.68 47.97 50.58 44.28 50.72 51.30 43.91 42.95 37.64 40.29 40.71 41.90 44.16 42.10 41.03 39.96 37.93 37.07 35.43 35.11 34.66 37.86 41.48 40.82 36.70 37.58 35.62 27.05 31.61 36.65 38.47 35.90 34.55 33.44 25.90 25.00 25.60 24.15 22.56
54.00 53.12 51.80 52.98 52.11 49.84 49.94 47.06 46.28 50.55 48.67 40.54 37.56 39.96 40.16 42.32 41.49 41.40 41.40 39.96 41.25 40.49 37.46 33.55 36.60 37.84 40.88 41.64 40.17 36.47 37.49 32.25 23.99 24.96 30.51 34.51 32.58 34.36 35.92 34.66 30.93 24.77 21.47 25.67
53.90 53.33 52.18 51.12 52.22 50.35 47.62 45.79 42.58 46.34 46.55 44.34 40.19 38.15 38.64 38.53 42.73 41.95 42.34 40.81 41.28 39.00 36.80 37.59 35.42 37.16 40.38 40.46 41.16 42.82 40.59 33.43 29.01 24.82 25.85 32.07 28.48 32.87 34.54 32.90 23.20 25.33 27.01 28.40
53.86 53.19 52.49 51.02 51.23 51.15 47.50 46.10 41.43 41.98 39.99 39.83 40.16 40.77 40.22 38.44 37.89 41.74 41.96 38.98 39.69 38.15 34.03 35.16 34.66 38.01 38.01 40.08 41.54 38.66 37.45 29.28 28.61 31.50 33.56 33.11 31.73 31.75 33.43 31.08 31.98 26.45 29.35 30.23
53.42 53.28 52.72 51.41 49.79 51.15 47.12 44.60 42.98 42.22 40.50 41.12 39.74 37.94 37.86 38.81 38.70 39.73 38.27 37.27 39.63 38.29 35.30 36.07 34.09 37.35 36.64 36.19 38.55 35.88 37.75 29.11 30.18 25.75 33.45 32.80 30.13 32.58 32.85 33.35 34.40 34.05 34.01 33.09
53.02 53.21 52.60 51.92 50.33 47.40 48.96 46.22 45.70 43.11 39.86 39.38 37.27 37.83 38.71 39.52 40.62 40.39 41.52 39.86 38.30 37.03 38.90 40.04 39.54 39.02 39.00 36.98 37.51 35.89 35.30 31.55 27.73 24.50 29.75 29.85 24.68 30.97 32.18 32.55 33.60 33.67 30.01 33.69
52.98 53.01 52.75 52.26 50.67 50.35 48.90 45.02 44.68 42.23 38.23 38.65 38.70 40.21 40.80 39.93 40.02 38.02 40.83 40.33 37.83 39.14 41.79 40.21 38.13 37.88 37.69 37.60 36.95 38.67 34.48 32.61 29.34 23.41 26.53 17.28 30.69 33.42 33.89 34.07 35.35 35.72 35.35 35.35
52.57 52.52 52.71 52.33 50.90 50.00 47.26 46.11 44.54 43.65 39.39 40.29 38.60 39.66 39.89 39.81 38.92 38.47 39.52 40.86 40.84 42.38 38.85 34.20 30.62 29.32 29.86 32.99 34.79 34.48 36.44 33.34 25.79 21.91 22.18 28.87 30.98 31.83 31.39 31.14 31.58 35.29 34.88 36.35
51.86 51.92 52.33 52.15 51.47 50.18 49.08 45.23 44.81 44.06 41.42 38.79 41.09 38.87 39.24 37.55 36.11 35.63 38.74 40.94 41.85 39.81 37.29 32.66 26.00 26.14 28.27 25.77 28.14 33.20 34.28 34.64 29.24 25.76 21.75 21.03 29.64 33.84 36.65 35.67 26.30 35.02 36.30 34.82
51.45 51.82 51.74 52.00 51.49 50.62 48.97 45.61 45.98 44.16 41.70 41.03 40.15 38.44 38.01 40.48 37.49 36.27 36.94 38.11 37.21 38.82 33.17 29.34 28.03 27.58 29.93 25.92 25.95 25.50 27.04 27.98 25.85 25.73 23.81 28.86 33.89 35.87 35.94 25.00 27.95 35.70 34.62 34.08
52.35 52.15 51.58 51.69 50.99 50.67 48.50 45.38 46.65 44.05 42.17 41.68 41.48 42.13 38.79 38.48 38.23 36.79 37.32 36.93 36.64 34.88 31.19 30.92 31.09 27.76 29.04 26.90 30.56 29.30 27.82 26.00 25.35 27.27 24.88 22.54 36.67 34.12 30.58 33.59 35.30 35.24 34.70 34.67
52.77 52.75 51.71 51.43 51.54 50.68 49.76 46.61 46.10 44.56 42.14 41.54 41.90 41.67 41.01 40.26 40.16 39.10 39.12 36.88 37.35 38.62 33.96 32.85 31.18 28.86 29.79 29.71 26.67 32.22 27.22 32.54 30.22 30.94 30.51 36.06 36.74 34.86 36.08 35.77 35.03 34.64 34.12 35.18
52.87 53.03 52.19 51.44 50.84 49.63 49.11 45.96 45.32 45.05 41.29 40.82 39.42 38.54 39.97 41.98 39.67 40.88 37.41 38.43 39.33 38.27 37.82 35.43 33.92 29.89 33.31 28.92 29.68 30.82 32.59 35.39 31.34 31.90 34.34 35.30 36.58 36.37 36.50 36.28 35.41 35.89 35.74 34.91
53.18 53.42 52.76 51.51 50.53 50.10 49.03 45.90 45.78 44.17 40.99 34.81 35.89 40.20 36.76 39.45 40.52 40.63 40.42 39.38 40.04 40.22 39.28 35.97 34.50 31.95 36.19 32.26 32.63 31.31 34.13 33.67 31.86 31.69 34.38 33.70 34.94 35.42 35.41 35.43 35.65 34.83 34.64 33.83
53.24 53.13 52.53 51.33 50.26 50.17 48.43 46.97 45.89 45.14 40.75 35.54 36.64 37.91 36.54 38.50 38.70 38.45 39.40 39.36 38.50 37.02 34.98 33.47 33.27 35.48 33.92 33.90 32.27 30.91 34.84 33.15 30.71 30.55 34.91 34.99 34.37 35.13 35.76 33.75 32.86 32.89 31.45 31.08
52.58 52.34 51.84 50.64 50.48 49.36 46.45 41.33 43.87 43.93 42.72 36.09 32.39 36.49 34.63 36.62 37.36 36.98 36.76 38.01 37.25 36.32 34.65 33.72 35.44 35.36 33.76 30.04 29.46 36.49 37.98 37.91 37.57 34.79 36.67 35.87 35.71 35.12 34.46 32.90 32.78 32.38 31.09 31.52
52.35 52.06 51.29 50.24 49.83 47.46 42.79 40.24 42.41 44.30 43.20 37.72 32.12 32.08 33.57 35.69 35.01 35.33 35.09 35.92 35.47 35.37 34.75 32.81 33.09 32.94 33.07 31.23 29.12 36.24 36.48 36.84 36.97 36.89 35.34 32.81 33.34 31.03 33.14 33.00 32.82 33.50 32.51 32.53
52.40 51.94 50.50 49.88 48.12 45.96 42.80 44.27 44.73 44.03 41.20 38.92 30.58 29.32 30.70 33.96 32.28 31.53 34.40 33.93 33.85 34.99 33.65 34.47 32.43 33.23 32.93 29.20 33.40 35.40 36.50 36.21 35.17 34.57 33.65 33.82 33.29 32.85 32.35 32.42 31.92 30.10 30.23 30.48
51.57 50.15 48.28 44.78 42.71 40.07 41.36 44.91 44.12 44.21 40.78 33.94 31.74 28.57 28.87 33.16 31.80 32.65 32.00 33.36 30.04 32.63 31.45 31.98 32.63 30.40 28.02 31.31 33.18 34.40 34.81 32.93 31.97 32.79 32.31 31.90 30.96 30.73 29.97 29.71 29.86 28.90 29.01 29.60
47.97 43.10 39.32 35.36 40.19 45.19 43.94 40.14 36.86 36.66 37.07 35.58 31.13 33.89 30.68 32.79 31.16 30.99 30.95 30.60 29.96 27.14 29.44 31.69 29.56 28.17 33.75 35.12 35.93 36.19 35.98 33.71 32.60 27.06 26.41 27.63 26.01 28.97 28.80 29.18 29.92 29.59 29.38 29.55
39.51 34.79 33.24 40.65 44.49 39.69 36.49 32.07 31.08 31.52 29.40 31.86 31.24 32.64 30.43 34.00 30.63 30.68 32.17 29.69 28.18 23.87 25.38 24.90 25.91 25.92 29.96 33.40 34.19 35.80 34.44 33.41 32.13 31.40 30.90 30.15 28.68 28.54 29.08 29.60 30.39 30.29 29.67 28.10
38.41 38.19 40.20 38.93 34.55 32.32 29.08 27.92 28.88 27.86 26.89 30.55 30.12 30.39 32.50 32.00 34.25 31.41 30.12 27.30 27.70 22.09 27.62 25.91 22.52 26.07 30.02 31.30 31.31 32.34 31.81 31.03 31.16 31.49 30.59 29.91 30.46 29.91 29.49 28.76 28.11 28.33 28.32 28.58
38.19 33.81 31.70 31.18 30.45 24.94 23.31 20.32 20.96 23.72 28.62 31.30 30.93 28.65 31.17 31.43 32.38 30.66 29.66 26.01 24.73 27.65 24.96 22.98 23.22 28.35 30.00 30.37 30.90 30.27 31.78 31.69 30.70 29.49 29.59 30.00 29.79 30.36 29.52 29.17 30.68 31.19 30.36 31.18
31.70 29.55 23.67 26.87 22.84 25.86 27.07 23.80 24.81 28.19 30.31 30.55 31.06 29.41 30.24 31.36 29.09 30.34 26.18 28.00 26.25 22.09 20.98 18.18 24.75 28.26 28.98 29.82 31.68 30.72 28.17 28.15 28.07 24.99 26.56 27.54 28.00 27.73 28.93 29.56 30.65 30.09 29.61 30.24
29.96 29.80 23.87 24.28 27.67 27.73 26.28 25.80 26.73 28.64 32.05 30.39 29.29 29.20 29.65 28.66 28.09 28.76 27.91 23.71 21.00 22.83 20.30 25.45 26.19 27.50 29.34 28.33 29.44 29.33 28.81 29.03 26.36 27.22 25.17 25.02 25.62 26.89 28.69 29.67 29.79 29.09 29.75 29.07
30.04 28.04 24.77 25.70 25.04 24.99 26.55 26.81 30.07 30.74 32.78 32.08 31.28 27.58 26.93 26.45 27.04 24.81 23.48 22.99 20.25 22.20 25.70 27.21 26.63 27.11 28.19 29.15 30.58 31.05 31.32 31.36 31.27 29.99 28.08 26.86 25.96 27.15 28.32 29.41 29.60 29.97 29.13 27.13
27.69 26.55 29.75 27.44 26.97 27.71 27.97 28.41 28.88 32.89 31.82 29.18 28.78 24.71 23.48 22.02 24.28 23.34 25.09 22.14 24.39 27.11 27.61 27.66 28.23 27.81 28.89 29.34 29.88 30.42 31.18 31.29 30.09 30.05 30.85 29.37 28.78 25.08 23.47 26.70 29.35 29.69 29.25 27.79

GFSNW_sfc_wetblb_141.txt.gz
Wetbulb
54.08 53.48 52.49 53.14 52.96 52.19 47.49 43.98 37.49 47.33 46.95 37.63 35.23 31.57 36.39 40.67 39.42 41.32 39.40 37.95 36.79 33.79 33.50 32.43 31.67 32.16 34.26 38.88 38.14 33.81 35.11 33.16 24.36 29.65 34.69 36.26 34.35 32.65 30.17 22.44 23.80 23.02 21.55 21.61
54.12 53.38 52.75 52.12 52.36 50.35 43.86 41.19 40.45 46.78 44.67 30.09 29.05 35.49 38.14 39.95 39.07 38.90 38.99 37.18 38.70 37.35 34.08 31.17 33.65 34.77 38.67 39.81 37.93 34.42 35.07 29.51 20.28 24.53 29.81 33.33 30.62 32.22 33.88 31.28 27.50 23.01 19.62 23.26
53.99 53.55 52.96 51.61 52.11 51.42 43.38 39.83 34.84 41.44 40.54 37.80 34.67 33.12 34.74 35.45 40.08 39.31 39.94 38.08 38.65 35.88 33.35 34.94 32.90 34.29 38.45 38.52 39.01 43.09 39.69 31.01 26.86 22.70 26.16 31.00 27.73 30.69 32.14 30.67 20.74 23.28 24.17 25.87
53.76 53.56 53.04 51.88 50.70 51.82 43.82 39.62 35.66 37.47 33.47 35.18 35.46 35.91 36.55 35.43 34.77 38.84 38.99 35.98 36.85 34.75 30.80 31.82 32.10 35.31 35.57 38.18 41.40 37.35 35.40 27.07 26.72 28.89 31.39 30.72 30.07 31.00 31.15 28.61 28.84 24.96 25.50 27.76
53.01 53.28 52.89 52.54 51.42 50.10 42.82 39.22 37.62 37.34 35.05 36.94 35.06 35.55 34.44 36.01 35.73 36.66 35.05 34.24 36.84 35.30 32.04 32.74 31.86 35.20 33.92 33.89 35.55 34.61 35.40 26.38 27.81 23.81 30.91 30.21 28.32 30.17 29.83 31.14 32.07 31.13 30.69 30.32
52.88 52.86 52.67 52.53 51.76 47.75 42.79 41.39 40.85 39.22 36.68 34.40 32.02 33.76 35.17 36.98 38.26 37.68 38.59 36.65 35.30 33.92 36.11 36.63 36.39 35.92 36.27 36.77 35.40 33.81 33.36 29.05 24.95 22.47 28.67 27.69 22.94 27.40 30.14 29.48 30.90 33.17 28.77 32.86
52.61 52.53 52.63 52.46 52.00 49.94 44.60 40.65 39.72 37.40 34.66 34.49 34.92 37.11 37.53 37.31 37.16 35.94 38.00 37.72 34.79 37.16 38.97 37.64 36.56 35.99 35.08 35.33 34.60 36.48 32.18 30.10 26.49 20.57 23.95 15.28 27.26 31.35 32.44 31.49 32.96 33.41 32.86 34.21
52.11 52.19 52.37 52.42 52.08 51.65 43.23 42.09 41.05 39.13 35.70 35.92 35.65 37.17 36.87 36.66 36.04 35.71 37.14 37.93 38.17 39.83 36.55 31.96 28.70 27.81 28.64 30.33 32.06 31.93 33.43 30.95 23.54 20.57 19.94 25.19 28.09 30.61 30.40 29.89 30.42 32.75 33.99 34.06
51.94 51.59 51.89 52.18 51.68 51.41 44.69 41.18 41.28 40.10 38.31 36.28 37.62 36.37 36.64 33.81 32.22 33.09 36.39 38.96 40.12 38.29 34.82 30.42 24.01 24.06 25.45 25.08 26.85 32.51 33.11 32.71 27.16 23.49 20.23 19.54 28.58 32.08 34.54 33.46 26.13 33.53 34.46 33.71
51.79 51.35 51.64 51.76 51.29 51.15 45.57 41.75 42.22 40.82 37.91 38.44 37.03 34.96 35.01 37.14 34.36 33.03 34.81 35.69 35.24 37.28 30.51 27.59 25.38 24.96 28.59 24.91 24.59 24.50 26.62 26.63 25.13 24.51 21.90 26.96 33.10 34.20 34.57 23.87 27.91 34.31 34.30 33.73
52.39 51.63 51.73 51.59 51.22 50.76 46.25 42.35 42.74 40.97 37.80 38.79 39.19 39.53 36.55 36.47 35.96 33.08 35.43 35.04 34.89 32.74 29.44 28.06 28.48 26.36 28.01 25.73 27.73 26.33 25.48 23.70 23.50 25.22 22.78 20.69 35.08 33.08 29.72 32.48 33.29 34.13 33.47 33.54
52.56 52.32 52.06 51.30 51.40 50.28 49.24 42.51 44.29 42.96 38.78 39.12 39.77 38.88 38.56 38.30 37.79 37.33 36.80 36.11 35.66 35.83 31.39 31.24 29.28 27.90 27.29 26.57 24.54 29.95 26.59 30.62 27.51 28.90 28.98 35.16 35.25 33.90 35.08 35.06 33.91 33.24 33.44 34.00
52.54 52.76 52.82 51.56 50.78 49.70 48.08 42.45 42.34 41.58 37.94 37.02 37.03 36.31 37.27 39.31 37.85 39.02 35.87 36.12 37.52 36.60 36.75 33.68 31.94 28.61 30.15 26.42 27.07 27.84 30.96 34.26 30.98 31.56 33.83 34.75 35.46 34.45 34.34 34.37 34.13 34.76 34.74 34.44
52.86 53.21 53.23 51.97 50.95 50.09 48.55 43.00 43.17 41.44 38.45 31.35 33.91 38.44 34.76 37.93 38.18 38.79 38.95 38.03 38.57 38.79 37.34 33.41 32.37 29.99 34.22 30.55 31.69 30.71 33.72 32.85 30.64 30.40 32.21 32.46 34.04 33.35 33.66 33.97 34.15 33.64 34.01 33.62
52.83 52.86 52.82 51.86 50.76 50.24 46.74 44.19 43.42 43.07 38.53 33.30 34.28 35.89 35.07 36.84 37.04 37.22 37.77 37.70 36.87 35.31 33.27 30.58 31.73 33.93 33.23 32.19 31.50 30.62 34.58 32.40 29.78 30.59 34.46 33.46 33.07 34.07 34.90 33.14 32.54 32.82 32.38 31.21
52.25 52.29 52.21 51.34 50.55 49.55 44.65 39.37 42.08 42.62 41.64 33.29 28.15 34.71 32.42 35.54 36.50 36.25 35.77 36.07 35.38 34.52 33.17 31.61 33.74 34.66 32.77 28.36 27.76 35.16 36.36 35.75 36.57 34.46 34.78 35.31 34.32 34.23 33.80 32.24 32.25 32.30 31.51 30.99
52.21 52.14 51.84 50.73 50.28 46.67 41.50 38.67 41.87 44.19 42.07 36.20 27.07 27.77 32.66 34.61 34.36 34.46 34.09 34.42 33.23 33.06 32.06 30.50 31.09 31.59 32.15 28.65 27.98 35.67 36.42 35.60 35.43 34.49 33.88 31.84 31.85 30.93 32.21 32.21 32.05 34.41 31.06 31.19
52.27 52.15 51.60 50.57 48.87 45.93 42.25 42.85 44.51 43.81 40.34 37.56 24.27 25.66 29.30 33.89 31.54 30.90 33.66 32.36 32.23 33.50 30.77 33.70 31.72 32.38 31.87 28.82 33.12 34.22 35.35 34.64 34.42 34.14 33.03 33.50 33.28 31.64 31.00 31.29 31.15 29.24 29.55 29.56
51.82 51.47 49.02 45.41 42.87 40.36 41.10 45.11 44.65 43.30 39.55 31.63 26.12 23.09 25.68 33.03 31.32 31.89 31.80 33.33 30.00 32.14 31.31 31.83 33.06 30.25 27.55 31.48 32.18 33.07 34.52 33.19 32.96 31.56 30.86 30.25 29.85 29.50 29.59 29.15 27.88 27.07 28.00 28.10
48.36 43.50 40.06 35.76 40.30 45.41 44.18 39.73 35.70 35.84 36.17 34.29 25.86 29.84 28.81 32.13 30.22 30.14 29.93 30.56 29.20 26.85 28.57 30.84 29.62 28.20 33.21 34.52 35.08 34.73 35.32 33.73 31.02 25.81 25.96 27.14 26.38 28.08 27.24 27.30 28.43 27.98 27.91 28.05
40.20 35.89 33.08 40.20 44.27 38.99 35.82 31.65 30.54 30.52 27.07 30.18 29.88 28.98 28.26 33.66 29.93 30.33 32.40 29.82 29.40 23.22 24.84 26.84 22.37 24.86 29.69 32.51 32.83 34.46 35.13 32.15 30.70 30.65 30.34 29.38 28.63 27.60 27.55 27.94 28.53 28.65 28.32 27.25
39.54 38.56 40.27 38.42 34.37 31.57 29.15 27.61 29.38 27.12 22.67 27.17 27.04 29.21 32.05 31.42 34.57 31.89 30.84 28.20 27.74 22.57 27.16 24.80 19.79 25.45 30.10 30.58 31.70 31.24 30.47 30.20 30.10 30.67 30.17 30.01 29.80 29.35 28.43 27.73 26.72 26.80 26.84 26.56
38.62 34.23 31.28 30.94 29.90 23.68 22.18 16.93 22.21 16.70 24.21 29.08 29.92 28.83 30.29 29.90 31.82 30.94 29.04 25.32 24.35 28.08 24.68 21.23 22.79 28.03 29.44 30.04 30.26 29.13 30.07 30.50 30.13 29.71 29.58 29.15 28.78 29.20 28.44 27.81 28.46 28.49 28.26 29.41
32.45 29.79 24.29 26.96 20.60 20.86 21.23 20.18 19.34 24.08 26.61 27.88 27.36 25.95 27.47 30.08 28.61 30.27 25.52 27.37 26.52 21.77 18.89 18.21 23.53 27.44 28.40 29.31 30.96 29.51 27.55 28.56 27.33 25.04 25.18 27.03 27.78 27.44 27.99 27.89 27.85 27.45 27.82 29.21
29.71 29.92 23.51 23.55 23.97 19.19 20.35 18.76 23.68 26.35 29.61 28.57 28.11 26.73 27.02 26.99 26.34 27.56 26.68 22.77 19.07 20.30 18.49 23.99 26.69 28.28 28.18 27.82 28.60 29.08 28.65 28.81 27.14 27.39 25.27 25.54 25.46 25.72 26.82 27.21 26.87 26.89 28.00 27.83
29.07 27.10 23.44 25.11 19.43 17.32 18.64 23.47 25.46 29.17 30.15 30.29 29.64 25.38 24.79 24.60 26.06 24.39 22.90 20.20 16.26 20.82 25.41 28.14 25.99 26.26 26.83 27.61 29.23 29.81 30.20 29.93 29.90 29.35 28.01 26.45 23.88 25.75 26.57 28.12 28.19 27.80 27.66 27.75
27.05 25.20 28.49 24.88 23.52 24.21 25.24 28.55 28.60 33.00 30.80 26.15 25.72 21.09 21.29 22.76 23.83 21.14 22.88 21.02 24.29 27.77 27.64 27.47 27.40 26.84 27.91 28.51 28.73 29.20 29.27 28.41 28.08 27.98 27.94 26.03 27.40 22.85 18.83 24.04 28.30 28.30 28.72 27.61

GFSNW_sfc_wetblb_144.txt.gz
Wetbulb
53.78 53.40 52.96 52.76 52.34 51.22 47.84 42.11 33.13 45.15 45.46 35.78 32.44 30.41 34.82 40.42 37.97 39.91 38.18 36.59 35.20 32.06 32.16 30.86 30.18 30.48 32.41 37.77 36.64 31.81 33.57 30.90 22.90 26.81 33.14 34.66 32.06 29.65 29.05 22.93 22.21 21.95 20.53 22.37
53.92 53.34 52.79 51.99 52.95 49.57 42.28 40.60 38.23 45.48 43.00 28.88 28.34 34.41 37.30 38.71 37.62 37.43 37.47 35.82 37.33 35.94 32.71 29.80 32.12 32.92 37.60 38.66 36.80 32.83 33.57 28.52 19.97 24.16 27.70 31.03 29.69 31.63 31.13 28.75 26.03 21.59 19.17 23.62
53.66 53.48 52.93 51.77 51.42 51.15 42.58 38.87 33.49 39.72 37.59 35.15 33.14 32.63 33.65 33.88 39.24 37.99 38.48 36.62 36.95 34.45 31.86 34.08 32.15 32.68 37.27 37.85 37.82 42.53 38.33 29.22 26.07 22.27 25.16 28.89 26.52 29.05 30.96 29.36 20.97 22.95 22.53 24.12
53.24 53.19 53.00 52.44 51.36 50.95 43.77 37.76 33.11 36.09 31.88 34.60 33.12 34.27 35.25 33.85 33.37 37.41 37.62 34.86 35.48 33.70 29.71 30.53 31.33 34.02 34.42 37.02 40.69 36.58 33.91 25.76 25.20 27.67 29.78 29.34 28.60 29.12 29.41 27.77 27.44 24.40 24.21 26.21
52.76 52.67 52.79 52.66 52.10 49.61 42.34 37.13 36.24 35.40 33.60 35.17 33.97 34.75 33.33 34.73 34.66 34.86 33.51 33.31 35.26 33.74 30.53 31.06 30.96 33.87 32.19 31.87 33.82 32.89 33.70 25.24 27.32 23.06 28.62 28.48 27.48 28.69 28.96 29.71 30.41 28.76 28.60 27.42
52.48 52.51 52.45 52.48 52.24 48.30 41.94 40.26 39.32 37.84 35.44 32.57 31.19 32.31 34.02 36.04 37.09 36.41 37.20 35.34 34.09 32.61 35.15 35.22 35.48 35.66 35.05 35.23 34.16 32.62 32.03 27.98 23.98 21.29 26.70 26.64 22.57 26.61 28.98 27.91 29.05 31.42 27.17 32.37
52.01 52.15 52.30 52.43 52.15 48.34 42.28 39.02 39.08 37.04 34.23 33.05 33.25 35.63 36.22 36.02 35.85 34.89 36.67 36.35 33.73 35.88 38.16 37.04 35.44 34.31 33.81 34.38 33.10 34.73 30.55 28.25 25.09 19.62 22.54 14.25 26.12 30.46 31.34 30.02 31.31 31.88 31.29 32.46
52.13 51.78 51.99 52.21 51.95 51.21 41.51 39.89 40.01 38.30 35.21 34.91 34.54 35.78 35.71 35.36 35.51 34.73 35.92 36.80 37.44 38.05 35.86 30.66 28.17 27.21 27.64 29.13 31.27 30.87 32.78 29.50 23.45 20.10 18.91 24.38 27.49 28.81 29.19 28.66 29.71 32.60 32.38 32.65
51.68 51.46 51.61 51.78 51.41 51.10 42.74 39.75 39.73 39.34 36.88 35.13 35.67 35.63 35.65 32.90 30.87 32.42 35.47 38.03 39.05 37.52 33.20 29.16 23.28 23.18 24.66 24.53 25.50 30.83 32.45 31.06 26.52 22.98 19.95 19.02 26.94 30.56 33.14 32.14 25.39 32.91 33.62 32.59
52.25 51.43 51.26 51.45 51.07 50.90 44.05 40.98 40.76 40.29 36.59 37.37 35.25 33.56 34.06 36.13 33.14 32.37 33.71 34.85 34.70 35.96 29.24 27.30 24.61 24.47 27.54 24.47 23.94 24.42 26.56 26.43 24.80 23.55 21.51 25.90 31.80 32.81 33.48 23.14 28.12 32.30 33.04 32.60
52.65 51.75 51.41 51.31 51.04 50.45 45.26 42.03 41.76 40.46 36.91 36.98 37.96 38.05 35.64 35.29 34.68 32.19 33.90 34.23 34.15 32.55 28.84 27.21 27.09 25.97 27.47 24.74 26.77 26.00 25.75 23.61 23.45 25.11 22.68 20.55 33.56 32.32 29.46 31.87 31.85 33.18 32.97 33.33
52.63 52.26 52.00 51.43 51.08 50.13 47.55 41.89 43.46 42.07 37.64 37.15 38.76 37.85 37.81 37.48 37.09 36.84 35.36 34.63 34.44 34.27 29.83 29.62 28.73 27.80 26.45 25.81 24.08 27.77 25.11 29.02 26.33 28.08 28.32 33.56 34.50 32.77 34.04 34.47 33.76 33.53 33.55 33.82
52.46 52.57 52.72 52.06 51.18 50.08 47.01 41.43 40.89 40.60 37.09 35.67 36.52 35.57 36.78 38.50 36.93 38.04 35.10 35.03 36.64 35.70 36.02 33.03 31.32 28.48 28.91 25.33 25.44 26.67 30.76 32.58 29.46 29.89 33.17 33.59 35.40 33.57 34.08 34.21 34.10 34.60 34.78 34.48
52.50 53.05 53.06 52.50 51.57 50.54 48.04 42.78 42.18 40.00 37.14 31.67 33.28 37.70 34.32 36.87 37.25 37.75 38.02 37.21 37.77 37.53 35.50 32.17 30.90 29.38 32.86 29.36 30.15 29.27 33.30 31.71 29.87 29.10 31.85 32.72 33.63 33.60 33.82 33.59 34.07 33.50 33.71 33.47
52.32 52.56 52.70 52.41 51.32 50.57 45.77 43.01 42.89 42.55 37.94 32.66 33.92 35.20 34.69 36.07 36.30 36.54 37.18 37.07 35.93 33.95 31.65 28.14 30.27 32.07 31.98 30.83 29.98 29.54 34.76 31.91 29.02 31.46 33.68 33.70 34.03 34.78 34.65 33.01 32.52 32.87 31.98 31.10
51.61 51.74 52.10 51.95 50.92 48.87 44.99 38.42 41.07 42.24 41.37 32.84 27.41 34.06 32.43 35.52 36.46 36.14 35.41 35.64 34.29 33.31 32.46 30.26 31.95 33.51 31.88 26.45 25.51 34.38 36.36 35.18 35.34 35.82 33.53 34.37 33.07 33.85 33.52 32.72 32.40 32.27 31.51 30.71
51.52 51.51 51.82 51.40 50.43 46.82 41.41 37.96 40.69 43.85 42.30 34.88 26.91 26.67 32.34 34.52 34.73 34.79 34.17 33.60 32.18 32.18 31.26 29.59 30.03 31.38 31.97 26.94 25.68 35.11 36.43 35.82 35.34 33.82 32.84 30.84 31.55 31.37 32.56 32.18 31.85 34.33 31.24 30.95
51.69 51.79 51.84 51.12 49.50 45.93 41.91 42.87 44.50 43.24 39.32 35.96 22.88 22.66 26.89 32.80 31.39 30.87 33.78 31.07 30.65 31.00 30.07 30.80 30.60 31.64 30.38 27.91 32.22 34.57 35.63 35.38 35.05 34.24 33.91 33.93 32.83 31.08 30.50 30.72 30.79 29.60 29.45 29.33
51.41 51.72 50.85 46.09 43.44 40.64 41.50 45.60 45.04 43.20 39.21 28.78 23.93 20.25 21.00 31.75 30.44 31.74 31.79 32.31 28.99 31.72 31.15 30.76 32.77 29.93 27.76 31.10 32.66 33.36 34.15 33.91 34.01 31.86 30.55 30.87 30.14 29.25 29.51 29.66 28.94 27.57 27.92 27.91
49.80 45.40 40.64 36.09 40.50 45.71 44.73 40.16 37.06 35.81 36.22 34.10 25.82 26.39 26.49 28.67 27.48 28.13 28.36 29.53 28.02 21.42 27.48 30.26 29.80 28.40 32.61 34.06 33.75 33.53 34.27 35.24 31.88 26.15 26.01 27.31 27.04 28.16 28.68 28.92 28.85 28.37 28.02 27.99
41.10 36.63 33.55 41.05 44.61 39.39 36.48 32.16 31.41 31.49 28.61 32.15 28.31 28.11 28.04 31.65 25.42 26.75 30.34 26.40 27.04 21.20 23.06 26.30 24.27 23.98 29.30 31.84 31.96 33.72 33.79 34.66 31.43 31.06 30.58 30.25 29.77 28.71 28.29 28.37 29.00 28.60 27.69 26.17
40.52 39.03 40.51 38.74 34.49 31.45 29.84 27.39 29.01 26.48 23.84 26.55 26.00 29.09 29.40 28.79 32.96 29.89 31.20 27.89 26.96 17.33 24.79 25.29 20.26 24.02 29.66 29.83 31.28 30.66 30.78 30.53 30.63 30.62 29.88 29.50 29.42 29.30 28.78 28.32 26.88 26.28 26.44 26.39
39.27 34.79 31.46 31.06 29.80 24.42 23.17 17.76 21.96 19.52 23.26 25.18 27.82 29.05 28.95 28.82 30.89 29.33 28.26 24.09 21.41 25.32 24.27 20.08 20.80 26.89 29.19 29.33 29.38 29.08 29.82 30.30 30.10 29.72 29.95 29.91 29.04 29.88 28.75 27.98 28.42 28.14 27.36 27.88
34.03 30.47 24.72 27.88 21.42 21.85 21.46 20.66 20.65 23.50 25.12 28.05 25.63 26.25 25.91 27.94 26.54 28.28 21.83 25.69 25.21 21.43 19.86 16.41 20.09 25.93 27.06 28.24 30.35 28.49 27.60 28.49 28.34 26.66 26.72 28.31 28.80 28.02 28.32 27.99 27.86 27.14 27.07 27.13
30.91 30.65 26.36 23.42 22.33 22.32 19.48 18.18 25.49 26.48 29.79 28.46 26.30 26.40 25.60 24.13 23.93 27.94 26.97 20.91 20.28 21.48 16.47 21.10 23.04 26.83 26.82 26.55 28.09 28.70 28.20 28.60 26.33 27.04 24.83 25.11 24.92 25.94 26.92 27.88 27.19 26.44 25.89 25.64
29.39 27.02 21.33 24.46 19.78 20.82 16.93 23.02 28.99 28.43 29.48 28.39 27.68 24.46 21.55 20.63 25.92 21.40 20.47 20.33 14.94 18.48 20.98 24.62 24.83 25.85 25.52 26.18 27.94 28.91 29.24 29.16 29.20 28.19 26.83 26.06 25.44 26.09 26.15 25.99 25.00 25.36 25.81 26.08
26.75 19.66 25.51 23.68 20.92 23.21 25.32 28.29 27.90 30.91 29.89 24.84 24.67 18.41 20.43 24.21 16.97 17.19 21.17 19.11 21.93 25.94 25.55 25.79 26.70 25.56 26.36 27.23 27.62 28.08 27.90 27.46 27.00 26.04 26.09 25.86 26.14 18.14 17.02 21.80 26.86 25.85 26.87 25.58

GFSNW_sfc_wetblb_147.txt.gz
Wetbulb
53.55 53.47 53.15 52.47 53.29 51.26 47.36 40.85 31.66 43.57 43.25 34.30 30.72 30.18 33.69 39.79 37.28 38.98 37.10 35.57 33.82 30.79 30.97 29.43 29.25 29.48 31.34 36.51 35.85 30.43 32.47 29.11 22.27 25.47 31.93 33.79 29.75 28.25 28.11 23.02 21.64 20.97 19.70 22.34
53.44 53.24 53.02 52.54 52.35 49.88 41.85 38.64 37.26 44.36 40.82 28.07 27.84 33.06 35.97 37.48 36.65 36.60 36.74 35.14 36.34 34.41 31.46 29.04 31.24 32.19 36.08 37.89 35.59 31.82 32.04 27.47 19.39 23.76 26.64 30.17 28.58 30.44 28.41 26.68 24.92 20.58 19.14 23.94
53.41 53.08 52.84 52.62 52.03 51.91 42.00 37.83 32.31 37.54 36.53 33.53 32.34 30.63 32.34 32.74 37.68 36.52 37.30 35.26 35.84 33.08 30.83 33.15 30.86 31.64 36.10 36.78 36.38 42.06 37.45 27.70 25.58 21.90 24.57 27.41 26.71 28.12 29.90 28.05 20.69 22.29 21.48 23.73
53.05 52.73 52.67 52.54 52.27 50.83 42.76 35.55 32.52 34.81 30.60 33.59 32.27 32.86 33.63 31.97 31.62 36.72 37.03 33.54 34.47 32.22 28.75 30.13 29.77 32.68 33.49 36.33 39.54 35.27 32.22 25.70 24.29 26.89 28.41 29.35 29.07 28.82 28.49 27.41 26.82 24.55 24.92 24.86
52.20 52.69 52.55 52.62 52.49 49.52 40.32 35.71 34.96 33.82 32.52 33.62 31.72 33.37 32.98 33.41 33.58 33.60 32.72 31.74 33.85 33.16 30.18 30.01 29.67 33.13 30.50 30.49 32.70 30.97 32.11 25.11 26.82 22.77 28.09 27.47 27.01 28.06 27.79 28.75 30.15 28.34 28.76 27.96
51.79 52.36 52.20 52.40 52.29 47.65 40.13 38.81 38.20 36.94 34.15 31.40 30.27 31.11 33.22 35.05 35.96 35.27 35.97 34.27 33.25 32.25 33.23 34.61 33.51 33.99 34.13 33.19 32.64 31.08 30.19 26.95 23.37 20.48 25.27 25.52 22.23 25.78 28.71 27.33 27.65 29.83 25.88 31.78
51.83 51.84 52.05 52.30 52.08 47.21 40.80 38.15 37.95 35.87 33.27 31.93 32.21 34.20 35.05 34.52 34.62 33.50 35.27 35.66 33.24 35.25 37.40 36.13 34.47 32.70 33.46 34.19 32.00 33.39 28.76 26.82 24.25 18.86 21.91 13.79 25.63 27.81 29.77 29.22 30.59 30.53 30.08 31.04
52.02 51.72 51.61 52.14 51.90 49.32 40.92 39.10 39.68 37.37 33.70 33.29 33.51 34.54 34.68 34.86 34.83 33.97 34.74 35.67 36.47 36.85 34.34 29.74 27.71 26.49 26.93 28.04 30.65 29.94 31.60 28.69 23.19 19.13 17.80 23.92 26.53 27.32 28.17 27.72 28.63 31.23 32.19 31.68
52.25 51.38 51.29 51.75 51.63 50.45 42.06 39.74 39.36 39.15 36.07 34.17 34.53 34.60 34.45 32.16 29.97 32.11 34.75 37.44 38.01 36.24 31.68 28.29 23.52 22.89 24.12 24.03 24.72 30.28 31.32 29.81 25.82 22.66 19.09 18.68 25.80 29.51 32.09 30.89 25.40 30.57 32.13 31.53
52.24 51.63 51.17 51.41 51.39 50.81 43.14 40.49 40.27 40.34 35.92 37.05 34.80 33.19 33.87 34.88 32.19 31.39 32.58 33.86 33.85 35.05 28.92 27.25 24.41 23.96 26.68 24.15 23.89 24.35 26.33 26.06 24.46 23.52 21.30 25.51 31.00 31.76 32.17 23.50 27.99 31.43 32.44 31.87
52.29 52.42 51.45 51.35 51.32 50.62 44.67 41.22 40.62 39.30 36.51 36.77 37.72 37.49 34.86 34.50 33.83 32.18 33.37 33.64 33.23 31.39 27.88 26.66 25.85 24.81 26.43 23.61 25.87 25.81 25.88 23.96 23.81 24.62 22.32 20.64 33.05 31.45 28.83 31.93 31.16 32.02 31.85 32.78
52.19 52.46 51.87 51.75 51.30 50.71 46.70 41.24 42.70 41.26 36.46 35.96 37.70 37.29 37.46 37.29 37.09 36.09 34.21 33.96 33.21 33.92 29.43 28.23 27.96 27.44 25.18 24.63 23.65 26.33 24.75 28.38 25.47 27.89 28.22 33.00 32.83 32.11 33.23 33.62 33.27 32.35 32.32 32.57
52.09 52.40 52.48 52.26 51.91 50.77 46.67 40.59 40.06 39.69 36.28 35.64 36.25 35.35 35.76 37.79 36.80 37.63 35.39 34.70 36.10 34.41 34.65 32.17 30.65 28.36 28.33 24.85 24.57 25.61 29.39 30.73 28.77 29.26 32.45 32.90 34.75 34.61 34.43 34.14 34.19 34.49 34.42 33.80
52.35 52.68 52.96 52.40 52.09 51.27 47.56 42.07 40.94 39.17 36.09 31.50 33.10 37.12 33.41 36.11 36.76 36.96 37.39 36.67 37.45 36.61 34.69 32.12 30.42 29.08 31.78 28.16 29.03 27.87 32.39 30.82 28.83 28.35 32.00 31.29 33.48 33.78 33.41 33.71 33.63 33.47 33.61 34.04
52.44 52.21 52.53 52.35 51.95 50.97 46.44 42.34 42.11 41.89 38.65 32.12 33.17 34.83 33.83 35.55 35.62 35.41 35.82 36.59 34.81 33.07 31.54 27.53 29.63 30.73 31.00 29.34 28.68 28.71 33.73 31.78 28.35 29.08 33.68 32.87 33.15 34.18 34.34 33.55 32.90 33.47 32.53 31.71
51.83 51.49 51.79 52.07 51.39 48.62 44.84 38.79 39.99 41.89 40.85 31.51 28.27 32.94 30.99 34.74 35.78 36.04 35.03 35.09 33.81 32.62 31.44 29.46 30.23 32.11 31.47 26.48 24.90 32.54 35.85 36.31 35.59 34.45 33.39 33.22 33.70 33.25 33.21 33.41 32.98 32.57 32.07 31.58
51.81 51.38 51.41 51.65 50.47 46.61 41.70 38.01 39.92 43.25 40.46 33.24 26.62 25.66 31.41 32.53 33.88 34.97 34.63 33.85 31.69 32.11 30.64 29.24 28.56 29.79 31.13 26.91 24.89 33.35 34.64 34.69 34.89 34.39 32.07 31.62 31.90 32.05 32.48 33.01 32.57 34.37 31.12 31.03
52.05 51.66 51.36 51.41 50.24 46.28 42.52 43.20 45.40 42.60 38.19 33.97 23.17 22.63 26.46 30.88 29.76 29.91 33.47 31.79 30.76 30.18 29.21 29.38 28.72 29.44 28.19 26.82 30.34 32.28 33.66 34.00 34.21 34.87 33.26 33.09 33.04 31.61 30.63 30.83 31.02 29.72 29.33 29.32
51.65 51.36 51.45 46.99 43.93 40.87 41.97 45.91 45.33 43.27 39.25 31.29 23.96 20.84 20.64 30.38 29.24 30.15 31.32 31.56 28.10 29.64 28.90 28.83 31.92 28.08 27.82 30.68 31.22 31.16 32.03 31.83 32.75 33.72 31.49 31.62 30.74 29.76 29.66 29.89 29.64 28.59 28.63 28.66
51.00 46.19 41.93 37.25 40.73 45.99 45.13 40.80 37.61 36.72 36.69 34.18 29.93 27.49 26.47 29.69 27.50 27.97 27.08 27.40 25.45 25.24 27.36 28.76 29.91 29.17 32.00 32.81 31.60 31.00 31.91 33.28 32.65 26.76 27.81 28.26 27.64 28.40 28.50 29.21 29.55 29.06 28.61 28.39
43.20 37.43 34.28 41.52 44.92 40.07 37.81 32.60 32.05 32.33 30.02 32.52 31.31 27.49 27.35 31.05 27.10 27.79 29.25 23.98 25.04 15.16 21.75 24.23 24.96 22.73 27.49 29.49 29.11 31.11 31.07 31.63 32.77 31.89 31.65 30.89 30.10 28.59 28.16 28.10 28.81 29.10 28.60 27.89
41.27 39.28 40.95 39.36 35.08 31.93 31.04 29.16 29.66 28.19 26.98 29.30 29.08 29.64 30.10 29.29 32.49 29.43 31.36 25.83 25.76 20.23 23.81 24.79 20.47 23.41 27.58 27.82 28.87 28.55 28.33 29.77 29.85 29.60 29.12 28.85 29.07 29.26 28.84 28.88 28.28 28.23 28.09 27.36
39.88 35.01 31.57 31.63 30.26 25.62 25.05 19.79 21.58 23.42 23.55 26.64 29.41 29.02 30.53 30.88 32.81 30.32 26.48 23.27 21.30 24.78 23.83 22.20 19.48 24.58 27.25 26.61 27.43 27.07 27.84 28.77 28.62 28.39 28.67 28.69 28.21 28.55 27.78 28.13 28.74 28.24 27.21 27.51
34.61 31.03 25.35 28.01 23.92 24.69 23.20 21.81 21.97 24.53 25.14 27.32 26.40 26.21 25.29 26.87 25.47 25.83 18.65 25.03 25.53 17.19 19.84 15.46 18.06 23.72 25.63 26.82 28.59 26.38 25.10 25.38 25.62 23.16 23.34 25.20 27.83 27.48 28.13 27.97 27.83 27.12 26.44 26.98
31.92 31.08 26.95 25.97 24.10 22.15 17.22 19.11 25.75 26.90 30.63 28.50 25.32 23.36 24.94 25.59 24.60 27.03 24.03 19.58 20.65 22.43 16.88 18.78 20.29 25.35 25.23 25.89 27.91 28.12 26.98 26.97 24.34 25.02 23.06 23.27 23.39 25.24 25.72 26.74 26.46 26.09 25.72 25.01
29.88 27.96 24.32 25.59 20.62 23.28 24.49 25.46 27.60 29.23 30.93 28.31 27.20 24.05 23.03 23.75 22.21 19.40 21.86 15.39 13.29 17.22 18.50 22.41 23.69 25.19 24.68 25.17 26.75 27.75 27.94 27.52 27.80 27.69 25.37 23.54 22.85 24.93 24.85 24.74 24.52 24.84 24.55 24.87
27.01 20.47 24.29 22.28 21.12 22.47 25.59 29.63 29.69 31.13 28.90 22.63 23.57 18.08 21.00 22.79 16.22 17.19 17.74 15.91 19.56 21.56 22.58 22.79 25.25 25.10 25.67 26.48 27.26 27.94 28.03 27.02 26.34 25.22 25.40 24.44 23.39 16.38 17.25 21.00 25.40 24.47 25.31 24.61

GFSNW_sfc_wetblb_150.txt.gz
Wetbulb
53.18 53.26 53.24 53.23 52.78 51.24 46.32 39.60 32.41 42.82 42.06 33.96 30.10 29.46 32.76 39.15 35.65 37.59 35.87 34.84 33.25 30.18 29.82 28.88 27.93 28.07 30.09 35.54 35.08 29.49 31.19 27.69 21.72 24.74 30.58 32.34 29.35 27.50 27.10 22.96 21.04 20.08 18.92 22.00
53.22 52.91 52.98 52.93 52.77 50.28 40.82 37.43 36.83 43.29 39.65 28.04 27.59 32.67 34.75 36.57 36.12 35.77 35.29 33.74 34.78 33.50 30.77 28.18 30.84 31.26 35.87 37.10 34.84 30.33 30.80 26.38 18.91 23.42 25.88 29.11 27.63 29.43 27.54 25.21 23.80 19.70 18.98 23.95
52.20 52.95 52.68 52.70 52.73 51.41 41.27 36.26 31.84 36.76 35.50 32.58 31.29 29.81 31.19 31.90 36.74 35.65 36.16 34.41 34.52 31.80 29.83 31.79 30.01 30.15 35.34 36.57 35.71 41.25 35.60 26.80 24.99 21.52 24.07 27.01 26.59 27.59 28.02 26.56 19.38 21.35 21.66 24.09
51.77 52.82 52.57 52.63 52.39 50.71 41.55 34.01 32.56 34.09 29.65 32.85 30.53 31.78 32.14 30.53 30.40 35.75 35.31 33.32 33.63 31.02 27.50 28.60 28.48 31.38 31.99 35.08 38.23 33.47 30.85 25.08 23.04 25.67 26.50 28.13 27.87 27.80 27.84 26.23 26.84 25.17 24.95 25.11
51.87 52.48 52.38 52.56 52.46 49.98 39.33 34.73 34.28 32.38 31.42 32.21 30.49 32.61 30.77 31.46 32.95 32.70 31.44 31.32 32.70 32.24 29.61 29.06 27.44 31.22 28.66 28.63 32.52 29.77 30.56 24.94 26.04 21.91 27.73 26.71 26.48 27.74 27.35 28.41 29.19 26.72 28.46 28.35
52.08 51.76 52.03 52.32 52.24 47.40 38.86 37.45 36.83 36.04 32.67 30.12 28.68 29.81 31.77 33.20 34.04 34.28 34.84 33.70 32.26 30.96 32.25 33.49 31.95 32.60 33.09 32.37 31.33 29.65 28.28 25.82 22.51 19.38 23.81 24.07 21.44 23.39 26.73 26.55 26.93 28.70 25.42 31.70
52.81 51.62 51.73 52.22 52.15 46.63 40.04 37.84 37.33 35.22 32.72 31.07 31.26 32.57 33.68 33.32 33.39 31.81 34.41 34.66 32.36 34.21 36.10 35.14 32.77 31.74 32.60 33.05 31.02 32.04 27.56 25.85 23.85 18.22 21.33 14.06 25.41 26.55 28.38 28.13 28.92 29.41 30.01 30.03
52.56 51.81 51.40 51.96 52.01 48.80 40.58 38.56 39.25 37.06 33.04 33.13 32.79 33.48 33.78 33.62 33.29 32.78 33.80 35.21 35.50 35.84 32.94 29.21 27.38 25.83 26.28 27.64 29.28 29.80 30.49 27.60 22.39 18.63 17.00 23.50 26.96 27.14 26.65 26.47 28.16 29.67 30.26 30.86
52.06 51.88 51.43 51.40 51.66 50.57 41.43 38.92 38.73 38.65 35.27 32.78 34.25 34.22 33.84 31.94 29.91 31.17 33.63 35.92 36.87 34.75 30.33 27.79 23.64 23.61 23.66 23.64 24.10 29.37 30.35 28.67 24.85 21.96 18.22 18.34 25.34 29.35 30.57 29.72 25.04 30.07 30.63 30.40
52.19 51.91 51.29 51.33 51.43 50.26 42.77 39.75 39.32 39.29 35.00 35.63 34.09 33.09 33.45 34.26 31.58 30.99 31.61 32.94 33.62 34.10 28.85 26.92 23.95 23.28 25.36 23.50 23.40 24.20 26.20 25.53 24.12 22.99 20.36 25.35 30.38 31.08 31.28 22.60 27.20 30.78 30.81 31.03
52.27 52.01 52.02 51.08 51.33 50.46 44.18 40.36 39.80 38.42 35.16 35.58 37.11 36.80 34.38 33.84 33.37 31.95 32.98 33.00 32.60 30.63 28.13 27.16 26.45 24.53 25.92 23.00 24.76 24.88 25.18 23.26 23.11 23.79 21.78 20.07 32.71 30.05 28.60 32.12 31.38 32.01 31.90 32.35
52.36 52.03 52.14 51.80 51.26 50.32 46.11 40.28 41.74 40.54 36.25 35.80 36.88 36.34 36.03 35.76 35.21 34.68 33.02 32.87 32.36 33.20 28.99 27.51 27.35 27.39 24.79 24.91 24.54 26.15 24.86 28.60 25.95 27.81 28.13 32.77 31.81 32.34 32.11 32.54 32.66 32.39 31.42 32.82
52.43 52.23 52.44 52.24 52.08 50.84 46.32 39.86 39.15 38.76 35.55 35.40 35.64 34.08 34.25 37.19 35.73 36.74 34.31 33.59 35.35 33.50 33.14 30.44 29.28 28.28 27.90 24.46 24.14 24.59 28.56 29.95 28.36 28.82 32.12 32.43 33.98 34.08 33.88 33.28 33.41 33.84 33.45 33.64
52.87 52.87 52.61 52.44 52.16 51.37 46.93 41.82 40.31 38.20 35.25 31.29 32.67 36.36 32.27 34.79 36.20 36.34 36.63 36.19 36.55 35.43 33.81 31.33 29.67 28.92 30.90 27.36 28.04 26.80 30.42 30.23 28.38 27.75 31.53 31.17 32.86 32.48 33.68 33.93 33.25 33.51 32.74 33.32
53.05 52.62 52.24 52.31 51.94 51.43 46.94 44.43 41.68 41.22 38.07 31.91 32.38 34.01 32.60 34.49 35.04 34.84 35.66 36.12 34.98 33.33 31.44 27.18 29.42 29.79 29.62 27.96 27.80 27.42 32.06 31.33 27.97 27.96 32.90 32.30 32.65 33.32 33.83 32.95 33.73 33.23 32.64 31.54
50.28 52.06 51.67 51.87 51.64 49.11 44.93 40.79 38.99 41.53 40.17 31.16 28.64 31.97 30.42 33.96 34.17 35.12 33.92 34.43 33.78 32.40 30.86 29.15 29.29 30.57 31.53 26.11 24.60 31.33 34.91 36.09 33.86 32.01 31.44 32.69 33.61 33.36 32.57 32.62 32.91 33.02 32.39 31.82
48.60 50.70 51.52 51.39 50.49 46.00 42.53 38.21 40.23 43.16 39.71 35.17 27.07 25.98 30.91 31.25 31.53 32.65 32.14 31.74 30.61 31.78 30.38 29.03 28.32 29.33 31.75 26.96 24.89 32.92 34.13 32.85 33.53 33.13 31.55 31.42 31.22 31.62 32.01 31.52 32.16 33.86 30.61 30.65
47.18 48.34 51.46 51.43 50.33 46.66 43.47 43.61 45.32 41.92 36.85 32.65 21.78 23.03 26.15 30.36 28.76 28.52 30.91 29.52 29.57 29.82 28.91 28.68 28.28 28.95 27.74 27.38 30.20 30.62 32.21 32.59 32.57 31.74 31.85 31.65 31.28 30.00 29.05 30.57 30.54 29.62 29.29 29.54
46.40 48.21 50.78 49.18 44.33 41.24 42.56 46.22 45.60 43.16 37.23 29.19 23.75 21.88 21.46 30.21 28.21 28.60 29.27 30.09 27.97 28.97 28.52 27.31 31.01 29.28 27.06 30.10 29.63 29.49 30.21 30.09 30.86 31.72 31.69 30.82 30.10 30.12 28.41 29.05 28.91 28.43 28.58 28.81
46.18 46.69 43.19 38.48 41.37 46.05 45.02 40.87 37.96 37.28 37.47 34.29 30.54 26.44 23.21 28.12 25.96 26.78 26.40 27.29 26.43 25.52 28.09 29.51 29.84 29.45 31.13 31.93 30.96 30.47 30.04 30.60 30.91 24.74 26.28 27.22 26.61 26.98 26.92 27.98 28.73 28.73 28.59 28.61
42.88 38.41 34.55 41.83 45.41 41.03 38.87 32.97 31.88 32.81 31.20 32.81 33.14 30.55 26.71 29.51 26.16 26.26 28.62 25.74 25.30 15.48 21.54 25.04 25.08 23.88 25.81 28.36 28.03 29.32 28.67 27.92 28.49 30.34 30.85 29.47 29.15 27.09 26.77 27.14 27.72 28.23 28.05 28.26
41.34 39.34 41.17 40.25 35.37 32.37 31.17 29.22 30.93 30.36 29.65 31.02 29.49 28.44 31.01 29.73 31.57 30.27 30.76 25.65 26.79 18.43 23.81 24.67 20.95 23.35 26.43 26.52 27.29 27.40 26.12 27.06 27.09 27.41 27.10 26.10 27.52 27.83 27.23 26.87 26.07 26.57 27.07 26.34
40.30 35.35 32.00 31.11 30.92 26.23 26.37 24.21 25.76 25.32 24.82 29.42 29.64 28.44 31.07 31.16 32.79 30.55 27.47 23.77 20.72 24.35 24.16 21.86 19.66 23.74 26.10 25.60 26.85 25.32 25.74 26.64 26.62 26.29 26.40 26.74 26.53 27.19 26.19 26.55 27.28 26.92 26.48 26.81
33.29 31.44 26.67 27.80 24.66 26.86 26.61 22.82 23.36 25.89 24.98 29.06 28.62 26.37 27.15 30.13 29.40 28.21 18.42 24.58 25.21 20.18 15.62 15.13 17.78 23.03 24.86 25.78 27.33 25.55 23.76 24.77 25.03 22.53 22.02 23.98 26.62 26.49 26.93 26.88 26.45 25.55 25.00 26.05
31.99 31.95 26.29 25.11 26.50 22.02 17.50 18.05 22.85 26.19 30.91 29.10 26.05 26.35 27.42 26.58 26.54 26.29 21.94 21.63 20.31 17.14 15.20 18.96 19.27 24.07 24.89 25.73 26.84 26.43 25.38 25.75 23.32 24.33 21.30 18.74 18.80 23.34 24.28 25.32 24.94 24.59 24.61 24.36
32.06 30.83 23.96 25.31 24.98 22.71 22.72 25.77 27.15 27.68 31.70 29.02 29.26 24.88 20.57 22.24 21.96 22.71 19.03 15.46 12.63 17.64 19.79 22.02 23.13 24.06 23.65 24.31 25.84 26.08 26.12 25.91 26.26 26.17 24.53 22.61 21.50 24.03 23.92 23.45 23.22 23.47 23.40 23.26
26.94 19.77 25.47 23.32 18.70 22.44 23.11 27.14 28.55 32.31 30.46 23.29 22.25 17.57 20.54 22.08 19.37 18.15 19.08 15.69 19.10 21.26 21.25 22.41 24.61 24.48 24.65 24.82 26.34 27.10 27.23 26.22 25.70 24.60 24.92 22.84 23.19 14.65 15.19 19.44 24.16 23.13 23.95 23.37

GFSNW_sfc_wetblb_153.txt.gz
Wetbulb
52.25 53.10 53.14 53.16 53.19 51.85 45.56 38.10 33.81 42.11 40.90 33.83 29.87 29.39 32.00 38.65 34.86 36.95 35.32 33.56 31.75 29.09 29.34 28.15 28.01 27.63 30.66 35.31 34.64 29.56 31.52 27.67 23.05 26.21 31.18 32.80 30.36 28.62 28.02 25.12 22.95 21.50 21.75 25.08
51.64 52.96 52.76 52.91 52.96 50.42 39.91 36.64 36.35 42.14 38.92 28.68 27.58 31.71 33.75 35.75 35.40 34.66 34.36 33.86 34.52 33.03 29.98 27.91 29.52 30.82 34.90 36.39 34.21 30.22 30.68 26.56 20.01 24.53 27.21 30.02 29.45 30.41 28.21 25.56 25.53 21.65 22.49 26.83
52.00 52.18 52.80 52.74 52.59 51.40 40.20 34.46 31.68 36.37 34.83 31.84 30.75 29.45 30.46 31.46 35.80 34.78 35.18 33.70 33.80 31.42 30.30 31.74 29.21 30.03 35.20 35.98 35.85 39.97 35.23 26.73 25.29 22.55 24.86 28.11 27.45 28.65 28.23 27.49 21.97 23.24 23.84 26.51
52.35 52.21 52.64 52.75 52.53 51.02 40.41 33.47 31.91 32.40 28.94 31.99 30.12 29.80 30.90 29.65 29.62 34.44 34.02 32.74 32.53 30.37 27.18 27.92 28.42 30.86 31.83 34.82 37.48 33.34 30.40 26.10 23.36 25.58 27.14 28.76 29.13 28.87 28.23 26.61 27.06 26.66 27.08 26.24
52.85 52.02 52.28 52.50 52.37 49.79 38.46 34.58 33.47 31.21 30.51 30.85 28.36 31.32 29.86 30.30 31.99 31.83 30.74 31.05 31.84 31.04 28.57 28.22 27.63 30.94 29.09 28.69 32.15 29.85 29.96 25.50 26.24 22.30 27.23 27.46 26.69 27.89 27.35 28.24 28.73 27.13 28.24 29.50
52.90 51.48 51.86 52.33 51.89 46.51 37.69 36.32 35.64 35.15 31.73 29.22 27.73 29.04 30.99 32.10 33.00 33.88 34.33 32.92 31.39 31.01 31.66 32.57 31.41 31.93 31.83 31.65 30.75 28.87 27.40 25.66 22.52 20.16 23.74 24.07 22.42 23.67 26.32 27.10 27.62 29.02 26.20 31.82
52.39 51.88 51.61 52.21 51.83 45.52 38.92 36.42 36.24 34.63 31.34 30.39 30.60 31.77 33.64 33.02 32.85 31.52 33.88 33.72 31.18 33.12 35.15 33.60 31.65 31.96 31.86 32.02 30.63 31.10 27.06 25.64 24.43 19.68 21.82 16.69 26.54 27.31 29.48 28.75 29.50 29.64 30.30 31.62
52.31 51.96 51.36 51.85 51.76 48.09 39.97 37.30 37.97 35.62 31.26 32.40 32.07 32.73 33.39 33.10 33.22 32.55 33.73 34.50 34.30 34.59 31.37 28.62 27.23 25.77 25.57 27.15 28.80 29.60 29.39 27.02 22.35 18.85 17.60 24.62 26.47 27.57 28.29 27.27 28.97 30.38 30.04 31.48
51.99 51.61 51.39 51.36 51.43 49.15 41.07 38.54 37.79 37.35 33.91 31.05 33.88 33.32 32.17 31.15 29.50 30.90 33.24 35.80 36.49 34.27 29.77 27.95 24.37 23.63 22.89 23.56 24.14 29.52 30.06 27.94 24.66 22.24 18.82 20.47 27.10 28.92 30.94 30.52 26.12 31.72 31.51 31.56
52.18 51.72 51.58 51.06 51.29 49.06 42.51 39.10 38.58 38.66 34.19 34.06 32.11 31.84 32.20 32.88 30.12 30.24 29.33 31.54 32.09 32.92 28.33 27.17 25.14 24.43 25.07 23.89 23.58 23.94 26.11 25.59 24.21 23.10 21.04 25.52 30.31 31.38 32.09 24.82 28.85 31.82 32.35 32.61
52.63 52.03 51.75 51.22 51.13 49.81 43.87 39.67 39.00 37.96 34.58 34.59 36.19 35.92 32.78 32.82 32.31 30.98 31.86 32.03 31.68 29.33 27.45 26.61 25.84 23.86 24.68 22.65 24.80 25.58 25.90 24.28 24.31 24.67 22.83 21.35 32.30 30.79 29.64 33.04 31.90 32.49 32.85 33.25
52.80 52.25 51.87 52.04 51.38 50.12 45.94 40.00 41.21 39.81 36.41 35.78 36.29 35.23 35.83 36.14 35.24 33.94 32.01 31.64 31.24 32.22 28.01 26.42 25.83 26.15 23.14 23.60 23.67 24.64 24.35 28.67 26.35 27.93 28.44 33.29 32.31 32.33 32.76 32.95 33.08 33.35 33.15 34.37
52.81 52.62 52.28 52.22 52.12 50.94 46.65 40.30 38.92 38.35 35.35 35.07 34.84 33.34 33.63 36.44 35.78 36.62 34.07 32.78 34.42 32.58 32.20 29.21 28.02 27.68 27.34 24.34 23.26 23.37 27.76 29.14 27.62 28.19 31.43 31.55 33.40 34.14 34.38 33.57 34.00 34.17 34.14 34.12
52.95 53.27 52.90 52.31 52.24 51.49 47.13 42.25 40.02 37.82 35.11 31.59 32.50 35.88 31.66 34.00 35.50 35.59 36.11 35.74 35.30 34.51 33.21 30.83 29.10 28.69 30.33 26.62 27.36 26.41 29.92 29.01 27.37 26.66 30.41 31.39 32.66 32.00 32.96 33.82 33.88 33.39 33.13 33.50
48.93 51.53 52.72 52.21 52.05 51.27 46.97 44.73 42.26 40.37 37.50 31.74 32.15 33.72 32.50 33.94 34.25 33.77 34.08 35.43 33.82 32.45 30.90 27.06 29.29 29.29 28.60 26.44 27.00 26.43 30.44 29.19 27.55 28.06 32.19 31.93 31.99 32.79 33.96 33.37 33.49 33.77 32.77 31.80
47.16 48.53 51.03 51.84 51.71 49.30 45.76 38.85 40.09 40.79 40.43 32.08 29.07 31.83 29.26 33.01 33.48 34.04 32.54 33.41 32.27 31.32 30.83 29.17 28.77 29.62 30.37 25.68 24.33 30.82 32.72 33.75 32.94 31.80 31.55 32.75 33.44 33.46 32.08 31.80 32.42 32.84 32.01 31.92
46.15 47.24 48.69 51.15 50.81 47.99 43.09 39.31 40.16 42.95 40.62 36.72 27.85 27.04 30.60 31.21 31.59 31.55 31.39 31.11 30.30 30.77 29.80 28.82 28.06 28.46 30.38 26.98 24.88 31.58 32.93 32.76 32.43 31.41 30.47 30.97 31.48 30.96 30.90 30.69 31.53 32.11 29.55 30.25
45.28 46.08 47.17 48.70 50.83 47.24 44.39 43.68 45.41 41.33 37.66 35.43 23.77 24.31 26.12 30.84 29.13 28.47 29.80 28.94 29.03 29.48 28.64 28.15 28.29 28.41 28.35 27.50 29.61 29.54 31.13 31.84 31.65 31.88 31.04 31.60 31.80 30.31 30.08 29.52 29.16 27.59 28.00 28.44
45.30 45.86 46.82 48.32 44.97 41.95 42.95 46.38 45.24 42.70 37.48 28.61 24.49 22.98 23.03 29.87 28.03 28.37 28.84 28.66 27.65 29.21 28.55 27.24 29.68 29.39 26.53 29.72 29.28 28.53 29.27 29.70 30.97 30.76 30.23 30.40 29.75 29.87 29.16 28.22 27.51 26.67 26.88 27.44
45.66 43.24 43.40 38.67 41.79 46.45 45.53 41.37 38.28 37.53 38.10 34.74 29.93 25.21 24.25 28.29 25.95 27.92 26.17 27.56 25.99 26.06 28.69 31.56 29.62 28.67 31.07 31.09 30.90 30.72 30.75 29.63 28.72 24.11 26.51 27.74 26.32 27.56 26.14 26.67 27.12 27.05 27.82 27.92
40.88 39.05 35.19 42.00 45.52 41.65 39.58 33.11 32.00 32.96 31.51 33.45 33.23 28.43 26.67 29.17 26.16 26.42 27.88 26.48 26.39 22.24 22.11 26.62 26.14 24.22 25.93 27.48 27.72 28.47 28.48 27.61 27.08 28.10 28.89 29.29 28.75 27.62 26.11 26.28 26.92 27.60 27.09 26.80
41.03 39.20 41.50 40.84 35.38 32.79 31.34 29.52 31.39 30.51 30.87 32.47 30.31 28.24 30.82 30.04 31.01 29.98 29.31 25.65 26.94 23.27 24.04 24.80 21.54 24.06 26.47 26.25 25.72 25.81 25.25 26.07 27.38 27.10 27.15 26.22 27.37 26.49 26.05 25.52 24.40 25.22 25.52 24.77
40.74 35.96 32.57 31.74 31.34 26.07 25.90 21.74 26.79 28.25 28.56 30.72 29.86 29.03 31.41 31.34 32.65 30.65 28.73 25.46 22.28 24.65 24.08 20.01 20.50 23.90 25.46 25.36 26.37 25.06 25.09 25.58 26.28 26.04 26.21 26.25 25.44 27.03 25.96 25.99 26.18 25.64 25.22 25.59
33.68 31.01 27.39 27.19 22.35 23.86 25.98 24.01 25.48 27.11 27.22 30.40 29.66 28.43 30.09 31.28 29.69 29.20 22.46 24.93 24.13 20.68 18.59 15.15 19.24 22.98 24.73 25.13 26.18 24.99 23.15 24.54 25.29 20.72 22.03 24.03 25.90 25.62 26.15 26.21 25.07 24.51 24.21 25.44
31.69 31.61 25.09 23.99 26.55 20.50 18.13 19.11 23.82 25.77 32.11 29.71 26.58 27.10 28.94 27.22 26.69 27.61 23.67 20.36 17.80 18.66 15.26 19.30 19.32 23.18 24.48 24.92 25.12 24.59 24.72 24.86 21.78 23.28 19.57 17.28 18.40 22.76 23.68 24.67 24.49 24.01 23.65 23.44
31.31 30.84 25.26 26.29 22.66 24.47 23.10 22.64 24.45 28.15 32.03 28.28 28.03 24.83 25.58 25.32 25.40 22.89 21.34 18.19 15.51 18.22 20.36 21.96 22.67 24.07 24.37 24.53 25.40 25.42 25.45 25.13 25.28 25.06 23.95 21.99 19.88 22.95 23.24 22.75 22.48 22.57 22.57 22.44
30.50 27.63 28.14 22.78 17.87 21.69 25.75 26.33 27.95 31.25 30.13 26.03 26.16 23.80 24.03 24.41 21.53 20.05 19.18 15.51 18.91 21.36 20.86 21.66 24.31 24.43 23.43 23.75 25.77 26.80 26.67 25.21 24.56 24.24 24.63 21.56 21.44 13.20 12.79 16.49 22.32 22.01 23.04 22.06

GFSNW_sfc_wetblb_156.txt.gz
Wetbulb
52.51 52.10 52.97 53.18 53.19 51.89 48.97 46.82 44.31 48.53 47.21 43.89 40.71 38.56 38.01 40.05 39.73 41.29 40.00 39.81 38.13 36.60 36.26 35.70 35.36 34.87 36.77 40.39 39.86 36.75 37.73 37.28 33.04 32.80 36.71 38.12 36.65 35.63 35.69 34.72 30.83 31.29 31.90 35.34
52.51 52.52 52.65 52.88 52.82 51.44 46.54 45.29 44.54 48.67 45.71 40.62 38.95 38.98 38.66 39.75 39.45 39.27 39.08 38.39 39.23 38.79 36.31 34.85 36.24 36.70 39.83 40.57 39.46 37.63 37.98 34.41 31.28 31.55 34.17 36.46 35.24 35.61 34.14 34.13 34.82 31.86 32.12 36.27
52.98 52.53 52.78 52.77 52.66 51.82 46.28 44.19 43.81 45.36 43.85 40.44 40.08 37.75 36.55 36.97 40.44 39.61 39.55 38.83 39.37 37.82 36.69 38.01 35.95 36.28 39.05 40.15 40.34 39.46 39.03 35.11 33.85 32.88 32.75 36.12 33.29 34.22 34.71 35.72 32.54 33.83 33.89 36.75
53.37 52.49 52.57 52.75 52.61 50.49 46.78 42.56 39.48 40.11 38.97 39.92 39.21 38.71 37.40 35.61 35.65 39.65 39.85 38.67 37.70 36.46 35.15 35.33 35.72 37.20 37.71 39.44 39.70 38.79 37.86 33.29 32.21 32.95 33.07 33.81 34.03 34.52 34.14 32.59 35.60 33.17 36.45 34.13
53.14 52.27 52.26 52.49 52.18 48.77 45.75 43.70 42.49 39.27 38.93 37.29 38.06 37.80 37.24 36.33 36.86 37.22 36.90 37.34 37.47 37.66 35.63 35.50 34.80 36.85 36.87 35.62 38.80 36.87 37.36 33.02 32.49 30.25 32.00 32.19 31.00 34.38 35.04 34.88 35.00 34.19 34.90 34.79
52.67 52.26 51.77 52.27 51.41 48.84 45.58 43.08 42.53 42.60 35.91 36.97 38.12 37.73 37.57 37.39 38.54 39.04 39.18 38.64 38.44 37.37 37.26 39.09 38.98 39.11 38.39 38.19 37.03 35.21 34.77 33.61 31.63 29.44 30.48 30.83 30.04 32.93 33.26 33.45 34.72 35.71 32.92 38.28
52.24 51.97 51.49 52.09 51.52 46.87 46.07 43.68 43.51 42.94 38.53 38.13 37.22 37.55 38.59 37.80 38.18 37.53 38.93 39.57 38.23 38.72 40.54 39.76 40.16 39.67 38.70 38.85 36.86 37.17 34.08 33.56 32.68 30.47 31.06 26.71 32.23 34.17 35.06 34.40 35.95 36.92 36.84 38.33
52.28 52.08 51.54 51.72 51.59 47.82 45.75 43.73 44.58 43.50 39.23 39.14 37.82 37.89 38.43 38.84 38.79 38.14 38.41 39.06 40.02 41.44 38.84 36.34 33.43 34.03 33.51 33.68 35.01 36.08 36.29 35.04 30.91 29.65 28.77 33.93 32.70 32.98 34.31 34.18 35.94 37.29 36.88 38.81
52.33 51.59 51.26 51.56 51.22 48.24 46.33 44.64 43.98 44.65 41.57 38.94 39.22 39.00 39.02 38.62 38.26 37.83 38.03 40.62 41.52 39.77 37.22 35.43 32.05 32.25 31.15 30.30 31.30 35.80 35.32 35.83 34.18 29.03 26.26 28.20 34.93 36.28 37.53 37.22 33.94 38.44 37.75 38.68
52.63 51.70 51.36 51.05 51.23 48.61 47.11 44.66 43.69 44.30 41.07 41.08 39.72 39.67 39.48 39.19 37.84 38.33 37.39 38.80 38.87 39.13 36.88 34.16 33.26 33.00 31.88 31.07 30.43 30.38 32.65 33.31 31.12 30.19 29.09 33.36 38.02 37.48 37.72 31.86 34.35 38.51 38.69 39.40
52.93 52.32 51.62 51.23 51.13 49.53 47.73 44.90 43.72 43.25 41.32 41.28 41.31 40.59 39.21 38.44 39.22 39.03 37.50 37.85 37.24 36.91 34.94 34.41 34.40 32.91 33.24 31.54 32.77 32.33 32.90 31.54 31.08 30.78 28.57 27.66 38.14 35.61 34.79 38.70 39.15 39.29 39.82 40.18
53.11 52.67 51.98 51.92 51.31 50.12 47.67 45.38 44.56 43.32 42.25 40.62 40.52 40.59 40.07 39.69 40.00 40.76 37.72 37.46 37.41 39.62 36.46 34.62 34.29 32.58 31.96 32.67 32.71 32.47 30.74 36.11 35.26 35.59 36.43 38.49 39.38 39.16 40.49 39.64 39.45 40.34 39.69 41.46
53.03 52.88 52.62 52.20 52.23 51.00 48.69 46.07 44.16 43.41 41.08 40.41 39.84 39.88 39.86 39.98 39.72 40.31 39.67 38.29 38.69 37.32 38.20 37.44 35.63 33.51 35.28 32.48 32.33 33.45 34.83 35.78 35.02 35.06 40.02 38.98 40.63 42.09 41.41 41.51 40.31 41.03 41.11 40.03
49.66 52.42 53.28 52.42 52.41 51.75 47.85 47.10 44.70 43.24 40.07 37.47 37.85 38.87 38.10 39.03 39.38 39.72 40.11 39.80 39.37 39.18 39.70 37.89 36.80 35.28 37.24 35.29 33.96 33.89 36.76 35.13 34.76 34.63 37.86 39.31 40.04 39.71 39.74 39.98 40.32 39.86 40.27 39.38
47.40 48.53 50.27 52.78 52.12 51.50 48.41 46.92 44.86 44.90 42.23 37.20 37.59 37.99 37.92 38.38 38.42 38.50 39.37 40.01 39.54 39.72 38.06 37.19 36.40 37.18 35.12 33.39 33.23 33.43 37.00 37.53 34.67 35.32 39.78 39.42 40.38 39.42 40.24 38.99 39.03 38.47 37.44 37.71
46.16 47.10 48.27 49.68 51.82 49.64 47.21 43.40 44.10 44.18 45.44 40.22 36.53 36.69 35.57 37.15 38.13 37.90 37.52 38.55 38.36 38.93 38.74 37.50 37.21 35.18 36.28 33.30 32.37 38.25 40.23 40.66 41.00 39.69 39.16 38.58 39.61 39.58 38.25 36.38 37.12 36.97 36.84 37.10
45.32 45.88 46.93 47.99 51.01 49.01 43.94 40.73 43.99 44.96 45.06 39.83 36.24 35.43 34.17 35.87 36.22 36.30 36.77 36.47 36.78 37.99 37.41 35.07 35.69 35.24 36.79 34.18 32.41 39.18 39.92 40.27 39.22 38.80 37.95 37.17 37.60 38.04 37.37 35.98 36.16 35.46 34.22 35.08
44.93 45.34 45.75 46.95 49.04 47.75 44.86 44.50 45.66 44.07 41.18 39.04 34.43 33.26 31.76 35.23 33.46 33.20 35.04 35.30 35.97 35.69 35.70 34.05 33.51 33.68 33.79 30.12 36.33 37.23 37.07 37.40 37.33 37.69 37.77 37.43 36.95 36.46 36.49 35.83 34.71 33.16 32.95 33.13
45.82 45.97 46.02 46.79 45.46 42.62 43.89 46.38 45.20 44.31 40.79 36.20 32.46 32.60 32.20 33.79 31.79 33.39 33.91 34.53 31.59 33.63 32.80 32.66 33.15 31.87 28.33 34.25 35.91 36.02 36.20 36.49 36.51 35.85 35.24 35.00 34.02 34.86 35.49 34.86 33.69 32.66 32.25 32.42
45.63 44.04 42.95 40.90 42.17 46.61 46.24 42.23 38.82 38.14 38.79 35.77 32.96 32.31 30.67 32.84 31.30 30.60 31.93 32.17 31.04 28.41 31.44 33.18 30.42 29.17 35.09 36.36 36.69 36.79 36.73 36.75 34.48 30.81 31.57 33.43 32.88 33.04 32.79 32.14 33.07 32.82 32.44 31.83
41.89 39.36 37.25 42.66 45.68 42.24 40.15 33.26 32.75 33.88 31.96 33.90 33.80 32.69 30.26 32.70 31.30 30.92 31.97 29.84 29.89 25.06 28.17 27.93 28.07 27.45 31.50 32.90 34.15 34.92 34.31 33.81 33.56 33.35 33.48 33.08 33.28 33.24 32.10 31.06 31.27 31.37 31.56 31.51
41.27 40.42 42.34 41.55 36.00 33.09 32.37 30.44 33.03 31.13 31.69 32.75 32.03 31.25 32.60 31.47 33.83 32.01 30.09 29.01 27.87 24.67 28.60 26.43 24.07 30.22 32.29 30.98 31.41 32.23 32.00 31.39 31.54 32.41 32.67 31.67 31.61 31.73 31.21 30.70 30.33 30.92 30.55 29.96
41.58 37.40 33.19 32.73 32.64 27.37 27.98 24.55 28.30 29.81 32.20 32.56 31.06 30.76 32.78 32.18 33.89 31.55 31.16 27.30 26.37 28.19 25.88 24.29 27.55 30.53 29.85 31.44 31.17 30.20 30.38 30.93 30.90 30.28 30.72 30.51 30.05 30.88 30.85 30.88 31.14 31.07 30.50 30.99
33.35 31.11 26.55 27.00 26.85 27.99 29.55 28.83 31.39 33.45 33.31 32.76 33.34 31.21 33.01 33.03 31.08 31.20 27.99 28.41 26.70 23.23 21.65 22.46 29.10 29.86 30.30 30.29 30.82 29.40 28.66 29.90 29.10 27.18 28.53 29.37 30.23 30.40 30.51 30.48 30.46 29.79 29.63 30.65
31.63 30.49 26.52 26.57 30.23 27.21 24.59 24.71 29.09 28.97 35.52 33.30 30.48 30.75 31.77 30.54 29.70 30.09 26.35 22.97 22.28 23.77 24.15 27.68 30.16 28.34 29.50 29.41 28.96 29.00 29.02 29.54 28.88 28.97 27.16 24.77 25.85 27.70 29.12 30.33 30.10 29.52 28.72 28.55
32.10 30.98 27.59 27.98 27.36 27.97 25.37 25.73 28.09 32.03 33.85 32.47 32.30 29.15 28.52 28.66 29.33 24.42 24.50 23.07 21.28 26.61 28.42 29.83 27.93 27.62 28.98 29.59 29.10 29.63 30.13 30.20 29.97 29.80 28.76 28.17 27.32 28.41 29.24 28.67 28.12 28.02 27.60 26.75
30.67 27.86 32.77 29.65 27.20 28.32 26.69 28.24 29.59 33.19 32.37 31.17 29.85 26.23 26.01 27.64 25.22 23.77 25.99 23.89 28.18 29.08 28.40 27.35 28.59 29.03 29.10 29.37 29.09 29.08 29.42 29.48 29.46 29.02 29.05 28.43 28.46 24.53 23.28 24.02 28.24 27.32 26.89 26.54

GFSNW_sfc_wetblb_159.txt.gz
Wetbulb
52.91 52.41 52.64 53.16 53.45 53.26 50.67 51.02 46.53 52.75 51.61 46.94 45.96 41.11 40.53 40.85 41.65 43.67 41.94 42.05 40.75 38.93 38.79 38.13 37.78 37.28 39.34 42.67 41.93 38.97 39.95 39.96 35.19 35.64 38.82 40.07 39.16 38.39 38.65 36.00 33.52 34.72 34.75 36.60
53.57 52.89 52.60 52.85 53.08 52.34 50.00 47.98 47.85 52.88 50.23 43.04 41.89 41.55 40.85 41.79 41.32 41.19 41.15 40.49 41.26 41.70 39.24 36.89 38.94 38.98 41.65 42.66 41.57 39.52 39.78 37.56 33.00 33.40 36.40 38.39 37.08 38.39 37.57 37.90 37.60 35.07 33.67 37.03
53.29 53.01 52.75 52.97 52.90 51.87 49.12 47.69 45.91 48.55 48.75 46.06 43.39 40.64 39.14 39.02 42.40 41.35 41.76 41.04 41.84 40.45 39.21 41.07 37.88 38.66 41.01 42.30 42.11 40.95 41.01 38.06 36.01 34.44 35.14 38.85 35.02 36.44 37.58 38.28 34.83 35.75 35.84 37.93
53.23 53.02 52.49 52.67 52.85 50.94 49.41 47.48 43.25 43.12 42.24 42.34 42.22 41.93 39.68 37.84 37.71 41.71 42.17 40.75 40.29 38.78 37.32 37.91 37.54 39.23 39.77 41.18 41.77 41.22 39.52 35.72 34.66 35.74 35.77 36.10 36.40 36.64 36.19 34.86 37.17 34.72 37.67 36.87
53.27 52.82 52.15 52.42 52.40 50.40 50.60 46.59 45.68 44.58 43.46 41.57 41.54 40.38 39.40 38.51 38.93 39.60 38.87 39.11 39.74 40.53 37.43 37.84 36.82 38.93 38.89 37.65 40.84 39.37 40.22 35.41 35.15 33.10 34.19 34.20 32.43 35.60 36.61 36.85 36.77 36.37 36.67 36.22
52.97 52.26 51.70 52.19 51.98 50.81 49.62 48.15 47.31 45.51 39.10 41.31 41.45 40.77 39.87 39.44 40.70 40.83 41.31 40.82 40.64 39.16 38.85 41.42 41.45 42.12 41.54 40.52 39.06 37.65 37.39 36.13 34.14 31.80 33.01 33.62 32.41 35.35 35.57 36.00 37.42 37.26 33.98 39.48
52.71 51.91 51.38 51.99 51.61 49.24 49.72 47.79 47.65 45.37 41.43 42.32 40.80 40.53 40.96 40.12 40.46 39.65 41.08 42.11 40.47 40.81 43.95 43.38 43.21 42.56 41.63 41.22 40.10 40.26 36.41 35.84 35.40 32.48 34.50 30.24 33.94 37.41 38.13 36.76 38.03 39.20 38.81 40.01
53.03 51.97 51.28 51.61 51.58 49.20 49.67 48.55 47.53 46.10 41.31 43.26 40.80 40.35 40.90 41.35 41.52 40.67 40.71 41.34 42.23 44.13 41.30 38.82 36.11 36.12 35.72 36.25 37.83 38.79 39.39 37.48 33.87 32.65 32.60 37.12 35.20 34.44 35.27 35.82 37.64 40.11 39.50 40.87
52.96 51.83 51.58 51.18 51.20 49.29 50.20 47.96 47.74 47.64 43.24 41.82 42.45 41.57 41.98 41.56 41.46 40.32 40.18 42.58 43.93 42.45 40.36 37.87 34.39 34.23 33.72 33.51 34.07 38.33 37.98 38.76 36.07 32.61 29.51 29.92 36.58 38.17 40.01 39.45 34.47 40.65 40.38 40.63
53.19 52.14 51.49 51.22 50.84 48.94 49.92 47.94 47.83 47.61 43.68 44.18 42.74 42.20 42.03 43.07 41.90 41.56 40.78 40.75 40.38 41.72 39.23 36.17 35.38 35.27 34.74 32.92 32.95 33.15 34.65 35.35 33.02 33.40 31.66 35.99 38.75 39.12 40.07 32.66 35.04 40.87 40.92 41.25
53.49 52.53 51.73 51.43 51.26 49.67 49.53 48.28 47.78 46.22 44.86 44.71 43.51 42.76 41.97 42.09 42.59 41.06 40.53 40.17 39.76 39.44 35.93 36.12 37.03 35.24 36.05 34.09 36.37 35.21 35.03 33.99 33.37 34.23 31.32 29.23 40.22 37.75 35.75 39.91 41.31 41.32 41.75 42.09
53.40 52.71 52.24 51.77 51.45 50.45 48.75 48.14 47.71 46.88 45.52 44.10 43.77 43.76 42.85 41.83 41.36 42.73 41.52 40.19 40.24 42.36 39.17 38.05 37.85 34.81 35.48 35.32 33.35 36.62 33.22 38.34 37.31 37.52 37.99 41.63 41.77 42.24 43.01 41.71 41.07 41.94 41.74 42.87
52.02 53.07 52.86 52.25 52.23 51.27 49.04 49.31 48.13 47.02 44.81 44.89 42.72 42.18 42.08 42.72 42.01 42.81 41.50 42.20 41.49 40.86 41.61 41.65 39.56 35.79 38.98 34.70 35.34 36.89 38.56 40.09 36.54 36.73 41.10 41.83 43.13 44.31 44.02 43.58 42.20 43.00 43.43 42.69
48.97 50.48 52.50 52.61 52.21 52.15 49.31 48.64 48.87 46.85 44.09 40.04 40.47 41.82 40.55 41.22 42.05 41.85 42.47 42.34 42.40 42.82 43.26 41.05 39.81 37.26 40.76 37.78 36.96 36.59 39.24 37.89 37.60 37.12 40.01 41.59 42.84 43.12 43.08 41.95 42.81 42.40 42.62 41.36
47.06 47.88 48.77 50.74 52.14 52.05 49.81 49.55 48.59 48.04 44.00 39.82 41.07 40.89 39.43 40.72 40.72 40.29 41.12 42.04 42.16 42.37 40.47 39.74 37.99 40.88 38.13 38.60 36.22 35.83 40.73 38.44 36.49 35.94 42.10 41.17 42.15 42.45 42.26 41.24 41.45 41.03 39.45 39.28
45.66 46.15 46.89 48.04 50.85 50.36 47.79 43.85 48.85 47.27 47.44 42.87 38.21 39.48 37.61 39.15 40.07 39.74 39.69 41.04 41.30 42.06 40.93 40.00 41.07 38.93 38.49 35.80 34.38 41.00 43.17 44.09 43.98 41.31 43.66 41.91 42.27 42.15 42.47 39.89 39.67 39.39 38.78 39.15
45.13 45.42 45.86 46.41 48.75 49.21 44.44 41.87 44.70 46.77 47.45 42.17 37.98 38.39 35.81 37.79 38.23 38.34 38.62 39.04 39.52 39.93 40.07 37.76 38.76 37.61 37.76 36.44 33.62 40.99 42.53 43.27 43.57 43.18 40.77 39.15 40.96 40.04 40.13 39.24 39.00 38.44 37.30 37.42
45.02 45.18 45.70 45.91 47.19 48.05 45.54 45.12 45.96 46.36 44.34 42.01 36.09 35.68 33.51 36.87 35.15 34.74 37.37 36.98 37.91 38.03 38.37 36.97 35.58 36.32 36.29 32.30 38.39 41.03 41.92 41.87 40.21 40.47 41.08 40.75 40.14 39.18 39.09 39.88 38.17 36.17 35.76 35.85
45.83 45.57 45.80 46.24 45.71 42.71 44.29 46.24 45.77 45.27 41.58 37.51 35.63 33.39 33.10 35.47 33.94 35.44 35.17 36.83 33.05 36.04 34.29 34.36 34.95 33.24 29.46 35.04 37.94 39.79 40.66 38.95 39.48 38.93 38.65 38.33 37.06 36.94 37.20 37.28 37.26 35.31 35.80 34.68
46.01 44.72 42.84 40.08 43.35 46.67 46.45 43.05 39.73 38.97 39.47 36.33 33.02 36.15 32.01 35.09 33.47 32.79 33.23 33.95 33.42 29.32 32.68 35.12 31.02 30.24 36.49 38.44 40.21 40.87 40.31 40.10 38.82 32.93 33.21 34.99 34.56 35.29 35.39 34.61 35.56 35.51 35.20 34.24
42.41 39.85 38.23 43.39 46.22 42.84 40.34 34.48 33.03 34.48 32.12 34.25 34.62 34.73 32.15 34.77 32.82 33.01 34.70 31.65 31.98 27.10 30.79 29.18 29.53 29.37 34.11 38.08 38.27 40.52 39.96 39.54 38.07 37.18 36.38 35.48 35.29 34.89 34.70 33.14 33.11 33.10 33.05 32.34
41.37 40.90 43.28 42.19 36.59 33.54 32.74 32.02 34.28 31.99 31.93 33.11 32.52 35.53 35.58 33.24 36.13 33.93 31.64 30.95 29.87 26.61 30.63 26.95 25.50 32.70 36.63 34.10 34.85 35.67 37.41 36.17 34.38 34.44 34.75 34.23 33.57 34.63 33.88 32.48 31.50 31.87 31.68 30.94
42.25 38.80 33.57 33.84 33.03 28.83 29.42 27.42 30.40 30.00 32.97 33.02 33.49 31.98 33.86 32.84 34.58 33.65 32.37 28.92 27.23 30.88 26.47 25.59 30.72 35.24 33.48 34.56 34.14 33.33 33.62 33.71 33.74 32.73 33.01 32.83 31.88 32.54 32.49 31.75 32.91 32.94 32.26 32.93
33.35 31.48 26.34 28.18 27.02 28.73 32.57 32.66 35.03 36.19 35.90 34.36 35.97 33.52 34.14 34.98 31.97 33.32 29.83 31.04 28.33 24.55 23.17 25.45 33.16 35.05 34.95 34.53 34.06 31.60 30.78 31.90 31.09 29.84 30.51 31.01 31.63 31.61 32.05 32.21 32.56 31.85 31.28 31.85
31.27 31.32 25.83 27.67 32.09 31.88 29.29 30.03 33.11 33.19 37.68 36.40 32.96 32.92 34.09 32.15 32.07 31.94 29.20 24.84 24.63 26.73 27.23 32.88 35.15 32.64 32.50 32.33 31.50 31.69 30.68 30.37 29.61 29.67 27.73 26.18 28.25 30.27 30.95 32.02 31.80 31.15 30.33 29.81
31.78 31.31 27.91 30.50 30.06 31.15 28.92 30.72 30.97 34.99 36.38 34.32 34.57 32.01 30.64 30.63 31.90 27.41 26.03 25.20 24.50 30.43 32.88 34.59 30.94 30.38 31.81 31.87 30.65 31.15 31.44 31.28 31.10 31.07 30.20 29.75 29.06 30.13 30.75 29.89 29.59 29.54 29.17 28.22
30.80 28.43 32.76 32.34 30.88 31.97 30.97 31.80 33.33 36.58 34.27 31.49 32.63 28.42 28.35 31.12 28.05 26.75 30.49 28.32 33.24 33.15 33.37 32.00 31.10 31.28 31.76 32.05 31.13 30.71 30.71 31.12 31.60 30.81 30.68 30.46 30.39 27.04 26.32 26.29 29.60 29.09 28.56 27.87

GFSNW_sfc_wetblb_165.txt.gz
Wetbulb
53.19 53.07 53.24 53.03 53.36 53.46 49.82 43.99 38.15 46.89 46.74 38.17 35.20 32.04 36.47 40.40 39.03 40.71 39.21 37.48 36.15 33.42 34.30 33.20 33.15 32.55 34.64 38.82 37.98 34.10 33.87 31.61 24.98 29.18 33.56 34.88 32.99 31.35 30.95 26.23 25.02 24.59 24.47 23.15
53.42 53.62 53.43 52.79 52.98 52.68 42.99 38.97 38.89 46.80 44.83 33.75 30.54 35.69 37.95 38.87 38.57 37.97 38.12 36.97 37.68 36.77 34.23 31.37 34.00 35.21 39.39 40.15 37.29 33.80 34.32 29.86 21.64 25.10 29.32 32.30 29.70 32.42 32.06 31.31 28.36 24.85 23.01 24.68
53.46 53.68 53.20 52.86 52.79 52.57 44.43 39.68 35.63 39.89 39.25 37.51 34.85 33.47 34.21 35.32 39.30 38.55 38.78 37.65 37.69 35.33 32.97 35.85 32.73 34.40 38.76 39.07 37.99 42.20 37.85 30.49 27.93 23.97 26.36 30.31 27.10 30.01 31.02 30.27 23.02 25.25 24.79 26.42
53.71 53.40 52.79 52.55 52.83 52.43 45.18 40.20 35.45 36.50 31.79 34.92 34.14 34.20 34.33 33.94 33.79 37.46 37.55 35.69 35.83 33.42 30.42 31.71 31.58 34.43 35.41 38.10 40.84 36.10 34.30 27.04 25.99 27.89 30.28 30.34 30.15 30.73 30.81 28.91 29.21 25.64 28.45 28.88
53.91 53.10 52.30 52.20 52.45 52.09 43.20 39.16 38.19 37.48 34.65 36.10 34.48 35.33 32.81 34.62 35.55 35.65 34.46 33.96 35.87 34.70 31.52 31.66 30.80 33.04 32.22 30.64 34.83 32.27 33.59 26.54 26.44 25.39 28.79 28.98 26.85 29.15 30.20 29.74 30.35 28.99 29.52 27.68
53.93 52.64 51.69 51.98 52.11 50.44 42.16 41.87 41.09 39.46 38.28 34.43 32.48 32.78 34.02 35.93 36.59 37.36 37.81 35.92 34.32 33.82 34.69 35.59 35.84 35.41 34.95 33.12 31.36 31.36 30.41 27.74 24.73 23.33 25.97 26.63 25.34 28.11 29.35 28.93 30.16 30.86 26.52 30.97
54.14 52.58 51.42 51.71 51.91 49.85 44.47 41.66 41.08 38.26 35.07 35.21 35.06 36.51 37.30 36.46 36.09 34.82 37.14 37.13 34.73 36.29 38.93 37.62 35.60 35.72 35.73 35.91 34.60 33.91 30.54 28.72 26.17 21.61 26.19 20.66 28.85 30.22 32.36 31.73 32.66 32.87 32.66 34.02
54.58 52.78 51.51 51.29 51.69 51.78 44.41 43.52 42.05 39.02 35.33 36.55 35.99 36.38 36.09 35.82 35.88 35.34 36.86 36.95 36.96 37.56 34.96 31.85 29.20 29.04 28.96 31.08 32.76 33.18 32.84 30.08 25.06 23.62 22.39 27.51 27.31 29.89 30.58 30.07 30.37 33.28 33.47 34.86
54.62 52.77 51.28 51.09 51.17 51.36 45.79 43.09 43.14 41.38 37.06 35.01 37.90 36.35 36.29 34.01 31.80 33.80 36.00 38.00 38.95 36.86 33.88 31.29 25.92 25.28 25.78 26.71 28.55 33.48 34.31 31.80 28.27 23.96 22.22 21.36 29.35 31.52 34.12 33.41 27.05 33.37 35.59 34.91
54.60 53.24 51.56 50.69 51.00 50.74 46.64 43.28 43.90 42.58 37.76 38.05 36.84 35.65 35.63 36.97 34.87 33.71 34.30 35.11 35.09 36.01 31.22 28.36 26.69 27.26 28.83 25.61 25.18 26.13 27.65 27.67 24.89 24.51 23.02 27.46 32.57 33.23 33.90 25.17 28.61 35.20 35.88 35.38
54.75 53.75 51.90 51.03 50.55 50.34 47.12 43.93 44.74 42.48 38.86 39.10 40.36 39.74 36.40 36.96 36.22 34.06 35.72 34.89 35.18 32.81 28.85 28.48 28.57 27.18 28.53 26.47 28.50 28.14 28.17 25.43 24.76 25.65 23.17 21.09 34.21 32.33 30.44 33.75 33.16 35.38 35.09 34.95
53.88 53.65 52.31 51.48 50.93 50.19 48.50 43.13 44.84 43.76 40.22 40.08 41.09 39.89 38.79 38.50 38.16 37.58 36.43 35.86 34.76 35.63 31.24 30.19 29.33 28.43 27.48 27.41 25.12 30.03 26.80 31.23 29.38 29.88 29.28 35.09 34.42 33.46 34.60 35.89 35.40 35.16 34.94 35.88
52.37 53.48 52.68 51.98 51.72 51.01 48.57 44.14 43.45 42.64 39.44 39.41 38.34 37.49 37.96 40.11 38.80 39.48 36.60 36.30 37.32 35.82 35.95 33.31 32.09 28.54 30.52 26.45 27.30 27.90 30.66 32.89 30.72 31.47 32.01 34.53 35.08 35.26 36.09 36.71 36.79 37.14 37.38 36.55
49.01 50.85 52.72 52.31 52.02 51.69 49.70 45.85 44.79 42.44 39.89 33.70 36.19 39.59 36.29 38.29 38.93 38.98 39.24 38.48 38.48 37.76 36.78 33.91 32.38 30.62 33.74 29.59 30.59 30.61 32.46 32.19 30.82 30.06 33.19 33.55 34.38 35.94 37.00 37.03 37.49 37.51 36.87 35.51
46.47 47.14 48.20 50.27 51.94 51.75 48.85 47.67 47.45 46.44 40.42 35.51 36.37 36.94 36.60 37.83 37.71 37.37 37.82 38.42 37.27 35.39 33.85 31.47 31.63 33.68 32.74 31.09 30.73 30.37 33.98 32.05 29.85 29.27 34.84 34.22 34.19 35.48 36.62 36.52 36.56 36.12 35.10 33.11
45.46 45.74 46.22 46.63 48.24 51.12 47.42 42.25 46.90 46.90 44.08 36.78 30.45 35.57 33.45 36.10 36.75 37.10 37.24 37.59 36.85 35.70 34.27 32.77 34.93 35.26 32.77 27.61 27.20 35.45 36.80 35.56 36.59 35.77 35.58 36.31 36.50 36.62 37.17 36.76 35.75 35.13 34.14 33.55
46.06 45.49 45.60 46.15 46.63 49.03 44.23 41.87 43.98 46.49 45.84 40.58 34.06 34.03 32.88 34.79 35.53 36.24 36.65 37.08 35.91 35.04 33.53 32.62 33.63 33.79 32.52 28.50 28.19 36.66 37.07 37.05 35.30 36.29 35.98 34.03 35.39 34.82 35.44 35.23 35.32 36.89 33.26 32.37
45.50 45.91 45.80 45.50 45.63 47.69 45.00 45.88 46.85 46.49 43.22 40.80 33.07 32.13 29.07 34.18 32.85 31.72 35.20 34.23 34.78 34.24 32.48 32.76 31.95 31.81 31.72 28.56 34.41 36.54 35.50 35.76 35.60 35.77 35.51 35.82 34.74 34.15 34.11 34.49 34.07 32.11 31.50 31.06
45.05 45.74 45.71 44.62 44.58 42.65 43.77 46.58 46.39 45.27 42.05 35.19 33.64 32.20 26.35 32.72 31.42 32.91 33.09 34.72 30.60 32.68 30.06 31.31 32.67 29.66 27.92 33.06 34.33 34.22 34.53 35.29 35.54 34.95 34.89 33.62 33.66 33.37 33.31 32.49 32.22 31.36 30.93 30.05
45.82 42.68 40.75 37.90 41.80 46.49 46.18 43.34 39.75 38.91 39.55 36.49 33.42 34.87 30.17 31.21 30.72 30.99 31.21 31.77 30.50 28.48 29.27 32.21 29.73 29.69 34.50 36.32 36.48 35.75 35.60 36.65 34.96 27.89 29.07 30.70 29.44 31.68 31.18 30.68 30.95 31.50 31.27 29.26
39.01 37.62 36.27 42.60 46.31 42.13 40.21 34.16 33.16 33.30 31.65 34.07 34.19 35.17 30.87 32.90 30.20 30.67 32.87 30.04 29.97 24.51 24.76 28.28 27.75 26.15 30.56 34.27 34.14 34.01 33.94 35.19 34.51 33.86 33.22 33.23 32.03 31.01 30.07 29.03 29.16 29.17 28.27 27.27
38.80 38.60 41.61 41.59 36.20 33.23 32.38 30.90 32.31 31.07 30.68 32.87 32.76 33.34 33.47 32.29 34.68 31.92 31.10 29.59 29.36 23.04 29.19 26.21 23.22 26.97 31.28 32.40 31.99 32.38 32.75 33.03 32.73 32.09 31.73 31.23 31.81 31.84 30.19 27.94 26.08 26.61 26.74 26.04
38.50 35.26 32.69 32.09 31.55 27.77 27.81 18.23 27.82 29.92 31.99 32.62 32.30 30.86 32.14 31.55 34.11 31.60 30.82 28.07 25.38 27.14 25.00 23.49 24.12 28.59 31.23 31.66 30.34 29.52 30.23 30.87 30.25 30.00 30.14 30.15 30.06 29.83 27.62 27.24 27.93 27.93 27.58 27.74
30.92 26.68 18.23 24.44 16.91 26.24 28.05 28.61 29.68 31.45 32.01 32.77 32.94 31.09 31.12 32.11 31.01 30.70 26.66 27.91 27.08 23.03 21.95 20.18 24.39 29.34 29.20 29.84 29.49 27.80 26.18 27.83 27.25 23.75 25.39 26.54 27.34 26.96 27.79 28.38 28.31 27.62 26.78 26.87
27.60 28.35 20.93 13.27 24.61 28.32 27.36 26.82 28.88 30.67 34.42 33.73 31.98 31.91 31.96 28.72 30.12 30.85 26.39 22.60 22.45 24.49 20.77 22.82 26.36 27.20 26.54 27.99 28.34 27.63 27.05 26.26 25.08 25.53 24.20 22.88 23.88 26.06 26.28 27.02 26.84 26.32 25.80 25.07
28.14 26.83 25.52 28.33 22.73 26.10 23.37 19.67 23.77 28.70 35.25 33.41 32.29 31.11 29.13 28.10 28.60 27.21 20.80 16.83 14.61 19.66 22.52 26.98 27.38 26.75 26.85 28.01 28.37 28.20 27.99 26.63 25.99 25.71 25.33 24.13 24.00 25.89 26.19 25.93 25.12 24.81 24.85 24.56
19.99 23.40 28.34 23.18 20.89 23.94 26.76 28.26 28.62 32.52 32.50 28.51 30.42 27.12 26.49 29.65 27.31 25.17 26.50 23.06 27.20 30.40 30.67 29.08 28.21 27.11 27.63 28.63 27.11 27.57 27.15 26.77 26.32 25.71 25.74 24.26 22.73 18.86 19.59 19.83 24.17 25.16 25.43 23.45

GFSNW_sfc_wetblb_168.txt.gz
Wetbulb
52.87 53.07 53.20 53.26 53.06 53.51 47.25 42.55 35.94 45.08 45.67 36.33 32.95 30.70 35.27 39.77 37.93 39.40 37.96 36.00 34.65 31.48 32.80 31.85 31.36 31.46 34.07 38.08 37.37 32.46 32.49 30.19 24.07 28.34 32.23 33.83 31.85 29.50 28.85 25.30 22.91 22.78 22.36 21.54
53.22 53.42 53.42 52.95 52.79 52.46 41.85 38.05 37.68 44.88 43.35 32.53 29.30 34.01 36.53 37.46 36.77 36.48 36.39 35.51 36.17 35.17 32.41 30.02 32.58 34.03 38.44 39.19 36.00 32.47 32.88 28.57 20.70 25.73 28.57 30.86 28.36 30.76 30.80 29.11 26.06 23.77 21.35 23.28
53.30 53.39 53.32 52.98 52.59 52.59 43.57 38.43 35.35 37.48 36.82 35.33 33.43 32.27 32.69 33.93 38.01 37.44 37.23 36.10 35.91 33.30 31.07 33.44 31.13 33.02 37.50 38.38 37.45 42.23 38.05 30.83 28.49 25.40 26.66 28.68 26.88 28.72 29.55 28.76 22.36 23.66 23.28 24.53
53.87 53.46 52.99 52.57 52.70 52.48 44.36 38.25 33.51 34.84 30.86 33.04 32.33 33.16 32.90 32.22 32.20 36.09 35.95 33.98 34.14 32.06 28.69 30.18 29.94 32.49 33.39 36.53 38.35 36.01 34.16 27.52 26.64 28.04 29.29 28.85 28.88 28.69 28.54 26.80 27.16 24.17 25.98 26.93
54.29 53.45 52.31 52.06 52.45 51.93 41.22 37.54 37.04 35.83 33.24 34.28 33.06 34.06 31.23 33.08 33.90 33.74 32.88 32.08 34.10 32.96 29.59 30.16 28.81 31.01 30.22 29.31 33.28 30.96 32.58 27.09 26.51 25.18 28.32 28.11 26.75 28.42 29.63 28.58 29.08 28.95 28.38 26.00
54.73 52.92 51.56 51.58 52.14 49.82 41.35 40.52 39.32 38.65 36.95 32.54 31.54 32.36 33.20 34.55 35.17 35.87 36.26 34.57 33.13 32.03 33.18 34.51 34.29 34.20 33.80 31.82 29.94 30.11 29.12 26.51 24.30 22.69 25.92 26.78 25.14 26.23 28.02 28.74 28.97 29.73 26.14 29.80
54.83 52.96 51.44 51.25 51.73 48.63 42.86 40.92 40.55 37.28 33.61 33.35 33.90 35.56 36.21 35.52 34.85 33.56 35.65 35.05 33.49 35.05 37.21 36.20 34.68 34.38 33.44 33.12 32.34 32.07 29.06 27.01 24.85 20.98 25.42 19.46 28.39 28.68 30.69 30.54 31.48 30.83 31.63 32.62
54.94 53.50 51.29 51.13 51.39 51.28 43.58 42.71 41.68 38.03 33.78 34.72 34.37 35.46 35.42 34.80 35.41 34.16 35.55 35.59 36.43 36.05 34.15 30.81 28.80 28.25 28.08 29.53 31.67 32.03 31.59 28.71 23.83 22.96 21.63 26.45 26.84 28.45 29.53 29.19 29.58 32.85 32.49 33.24
54.84 54.03 51.57 50.81 51.13 51.14 44.55 41.86 42.81 40.51 35.60 34.35 36.65 35.28 35.26 33.45 31.48 33.12 35.40 37.32 37.84 35.95 32.47 30.14 25.68 24.31 25.23 26.32 26.95 31.40 32.21 29.90 27.08 22.92 21.50 20.64 27.91 29.94 32.51 32.02 26.58 33.11 33.94 33.59
54.85 54.30 52.31 50.81 50.88 50.80 45.45 42.40 42.79 42.05 36.85 37.65 36.14 35.04 35.01 36.14 33.65 33.20 33.66 34.62 34.56 35.02 30.13 27.72 25.95 26.55 27.68 24.55 24.41 25.71 26.60 26.20 24.13 23.93 22.54 26.40 31.12 31.79 32.83 24.90 28.32 33.95 34.52 34.08
54.19 54.42 52.78 51.16 50.56 50.33 46.69 43.03 43.47 41.44 37.39 38.56 39.30 39.08 35.77 35.94 34.92 33.33 34.99 33.53 34.08 31.96 28.39 27.94 28.01 26.32 27.53 25.14 26.91 26.93 27.17 24.59 23.83 24.72 23.14 20.92 33.08 31.99 30.10 32.79 32.23 34.23 33.97 35.02
53.06 54.31 53.07 51.67 50.89 50.02 47.78 42.52 44.00 42.95 38.68 38.12 40.10 38.28 38.18 37.99 37.67 36.76 35.11 34.42 34.01 34.70 30.62 29.05 28.31 27.69 26.43 26.25 24.61 28.76 26.21 30.41 28.25 28.82 28.54 33.57 33.36 32.13 33.35 34.75 34.35 33.98 34.89 34.99
52.62 54.03 53.40 52.12 51.62 50.78 48.00 42.98 42.44 42.07 38.44 38.02 38.07 37.05 38.19 39.89 38.36 38.81 35.85 35.30 36.49 34.65 35.56 32.85 31.15 28.70 29.65 26.04 26.07 26.18 29.41 31.27 29.77 30.22 30.39 33.58 35.18 33.49 34.60 35.63 35.82 36.39 36.15 36.51
49.27 52.29 52.99 52.07 51.90 51.43 48.38 43.87 43.47 41.51 38.83 32.87 34.89 38.97 36.07 38.44 38.75 38.89 38.98 38.24 38.08 37.23 36.01 32.97 31.79 29.64 32.79 29.03 29.78 29.86 31.40 30.93 29.96 29.19 31.89 31.99 34.62 34.83 35.78 35.50 35.87 36.14 36.23 35.88
46.81 47.41 48.41 51.24 51.85 51.52 48.29 47.32 46.98 45.63 39.61 35.67 35.26 36.08 36.06 37.18 37.34 37.40 37.80 38.16 36.86 35.32 33.58 31.76 31.60 33.02 32.00 30.90 30.36 30.21 32.57 31.57 29.53 29.36 34.02 33.67 33.55 35.04 35.59 35.20 35.50 36.09 34.99 33.29
45.74 46.02 46.59 47.48 49.32 50.57 47.35 42.51 46.45 46.81 45.04 39.18 33.74 34.62 32.46 35.24 36.43 36.50 36.28 37.20 36.35 35.35 34.42 32.64 34.10 35.50 32.35 27.10 27.32 35.11 35.95 34.28 35.56 36.09 32.88 34.11 34.18 34.69 34.78 35.45 35.62 34.72 34.24 33.80
45.91 45.79 45.52 45.58 47.40 48.80 44.05 42.08 44.00 46.35 45.88 40.41 34.72 32.45 32.61 33.08 33.65 34.59 34.56 35.45 34.53 34.51 33.25 31.96 32.95 33.62 31.80 28.10 27.76 36.63 37.36 36.48 34.63 34.28 33.73 32.90 34.64 34.88 35.91 35.10 34.63 36.64 32.98 32.43
44.76 45.29 45.63 45.32 47.61 47.87 44.99 45.47 47.16 46.67 43.25 41.14 33.11 32.53 29.59 32.15 30.57 29.61 33.51 31.59 32.51 32.58 31.69 32.21 32.18 33.03 31.60 27.86 33.94 36.03 33.96 34.54 34.99 35.43 35.01 34.79 34.62 34.21 33.42 33.52 32.87 31.66 31.04 30.37
44.66 45.19 45.97 44.39 44.22 42.13 43.19 46.83 46.80 45.60 42.30 34.97 33.55 31.67 26.49 31.77 30.06 31.18 31.45 32.95 28.63 30.75 28.85 30.45 32.10 29.64 27.85 33.34 33.74 33.14 33.29 33.84 34.40 33.62 33.08 32.54 32.55 32.31 32.42 32.39 31.86 30.89 30.46 30.03
45.23 43.21 40.36 37.58 41.58 46.53 46.18 43.40 39.81 39.00 39.54 36.86 33.54 34.67 27.25 30.63 30.43 30.12 29.60 30.53 29.21 22.56 28.50 31.86 29.97 29.47 34.72 36.21 35.74 35.26 33.94 34.76 34.16 27.52 28.39 30.06 29.62 31.30 31.04 31.08 31.50 31.88 31.71 30.05
38.75 36.81 36.02 42.04 45.76 42.33 39.89 34.20 32.85 33.20 31.77 34.25 34.41 34.61 29.86 33.31 30.47 30.62 32.94 30.09 28.69 21.52 24.66 27.04 27.07 25.47 30.59 33.75 32.69 32.88 32.32 32.57 33.26 33.56 32.12 33.05 32.31 31.39 30.71 29.46 29.83 29.81 29.05 27.54
37.38 37.78 41.06 40.94 36.35 33.32 32.62 31.34 31.88 31.18 30.66 33.00 32.88 33.38 33.46 32.39 34.72 31.75 31.46 29.75 29.50 20.95 29.07 26.78 22.80 26.48 30.85 31.26 30.96 31.35 30.73 31.60 30.76 31.56 31.40 30.83 31.39 31.39 30.16 28.43 26.21 26.59 26.48 26.02
37.34 32.62 31.66 29.45 30.39 28.16 25.91 18.53 24.45 29.58 31.80 32.50 32.21 30.85 32.30 32.33 34.30 31.60 30.78 27.78 26.28 27.70 25.05 23.62 23.61 27.62 30.15 28.77 29.46 29.10 29.43 30.56 30.56 29.94 30.18 30.98 31.04 29.70 27.85 26.75 27.00 26.93 26.38 26.60
27.98 20.81 19.68 21.23 18.00 25.82 27.49 27.12 29.32 31.03 32.07 32.37 31.90 31.02 30.91 31.77 31.16 30.45 26.47 28.10 26.86 22.82 21.56 19.17 22.40 27.31 28.26 27.22 28.83 27.76 27.67 27.81 27.51 23.72 25.27 27.14 28.30 26.83 27.29 27.43 27.17 26.51 25.92 26.22
25.41 27.44 14.94 21.10 24.86 26.30 27.80 27.50 28.46 31.27 33.76 33.33 31.99 31.96 31.88 30.02 29.94 30.53 26.24 24.15 23.07 24.53 19.35 21.58 25.30 27.17 26.01 26.35 27.63 27.54 26.38 25.82 24.45 23.91 19.93 19.23 21.93 25.18 25.31 25.73 26.14 25.96 25.93 26.03
26.87 25.74 21.71 25.26 21.51 25.28 21.36 21.15 23.46 29.98 34.19 32.86 31.83 30.79 28.57 27.49 29.14 26.91 22.98 17.44 13.08 22.52 26.95 28.56 25.46 26.49 25.97 26.21 27.39 27.62 27.01 25.98 25.55 24.95 24.72 23.71 22.99 24.39 24.57 24.92 24.70 24.98 25.14 24.85
22.46 22.16 27.06 26.86 26.12 23.79 25.06 26.82 27.32 31.08 28.13 22.84 28.07 24.69 25.08 27.75 26.03 22.95 20.40 17.36 25.93 27.38 29.98 29.31 28.72 28.21 28.12 28.17 28.08 27.43 26.46 26.05 25.29 24.45 24.56 22.94 20.90 16.70 18.13 19.59 23.84 24.09 25.56 24.82

GFSNW_sfc_wetblb_171.txt.gz
Wetbulb
53.59 52.81 52.98 53.18 52.85 52.93 46.60 41.87 35.58 43.96 44.79 36.13 31.52 29.76 33.81 39.30 36.78 37.99 36.86 34.97 33.76 31.08 31.07 31.08 31.07 30.57 32.85 36.49 36.13 30.85 31.19 29.18 26.89 30.28 35.83 38.68 31.72 30.94 30.53 24.43 22.34 21.51 21.23 21.03
53.79 53.30 53.14 52.91 52.42 51.86 42.06 39.53 37.66 43.74 42.32 32.33 28.91 32.21 35.54 36.63 35.42 35.73 35.07 34.35 35.54 33.75 31.07 28.59 31.45 33.87 36.99 37.76 34.57 30.67 31.61 27.70 21.43 24.29 26.95 30.91 29.00 31.33 29.69 27.45 25.25 22.52 20.57 22.84
53.84 53.53 53.36 53.09 52.24 52.12 42.98 38.23 34.63 36.64 36.58 33.82 31.98 31.26 32.25 32.72 36.89 36.09 36.08 34.91 34.12 31.83 29.42 31.08 29.74 31.28 36.35 37.25 36.13 41.98 36.83 28.09 25.55 23.08 25.07 27.48 27.89 30.13 28.37 27.17 21.97 22.75 22.33 23.06
54.21 53.91 53.37 52.71 52.47 52.32 44.25 37.84 34.02 34.82 31.45 32.40 30.95 32.64 31.66 30.80 30.59 34.83 34.56 32.49 32.61 30.16 27.52 28.60 28.31 30.49 32.37 34.90 36.91 34.69 33.12 26.93 25.02 25.60 27.18 28.56 29.20 29.03 27.91 25.70 24.97 23.16 24.25 26.13
54.50 54.13 53.19 51.99 52.06 52.19 41.23 38.22 36.25 34.33 31.90 32.86 31.64 32.34 31.13 32.44 32.53 32.20 31.14 30.81 32.40 30.89 28.23 29.13 26.88 29.75 28.64 28.73 32.19 29.76 31.04 27.03 26.84 25.55 27.86 27.66 26.88 27.69 28.13 28.17 26.86 26.69 27.01 26.24
54.79 54.28 52.75 51.35 51.77 50.33 40.49 40.06 39.20 38.06 34.76 31.13 30.48 31.39 32.59 34.02 34.30 34.68 35.00 33.39 32.20 30.85 32.06 33.76 32.76 32.79 32.60 30.42 28.98 29.11 28.21 26.28 24.99 23.14 26.69 27.14 24.49 25.86 27.18 27.65 28.06 28.70 26.36 29.40
54.94 54.50 52.54 51.00 51.59 48.56 41.31 40.27 40.15 37.37 33.39 32.38 32.69 34.45 35.16 34.59 33.93 32.47 34.54 33.88 32.53 34.40 35.95 34.50 33.58 31.71 32.45 31.86 30.23 30.89 27.32 25.93 24.32 20.69 24.99 18.65 26.96 27.57 28.94 28.38 29.75 28.97 29.12 30.31
54.94 54.59 52.74 50.81 51.38 50.19 42.56 41.96 41.15 37.48 33.10 33.79 33.49 34.52 34.16 33.52 33.84 33.39 34.36 35.12 35.67 35.20 33.48 29.46 28.19 27.35 27.63 28.83 31.07 29.54 30.02 27.44 23.05 21.88 20.81 25.23 26.38 26.91 28.32 27.50 27.21 30.62 31.55 32.05
54.69 54.36 52.85 50.91 50.94 50.24 43.12 41.63 42.21 39.41 35.59 34.05 35.96 35.05 34.46 32.72 30.27 31.74 34.63 36.37 36.51 34.36 31.30 29.31 24.52 23.29 24.37 24.88 26.10 30.26 30.33 28.81 26.11 22.47 20.58 19.78 27.22 29.43 31.28 30.63 25.98 32.23 33.11 32.46
54.69 54.30 53.04 51.24 50.46 50.46 44.41 41.65 42.50 40.98 35.16 36.92 35.96 34.62 34.86 35.45 32.94 32.07 31.97 32.90 32.85 34.02 28.81 27.18 25.27 25.61 26.65 23.57 23.13 24.92 25.83 25.21 23.33 23.92 21.78 25.53 29.99 31.00 31.54 24.33 27.87 32.39 32.80 32.67
54.67 54.52 53.45 51.62 50.60 49.98 46.31 42.36 42.77 41.02 36.56 37.20 38.48 38.13 35.41 35.32 34.42 32.53 34.00 32.49 32.72 30.74 27.59 27.15 27.32 25.85 26.37 24.03 25.75 25.20 26.28 23.60 23.06 23.93 21.98 21.32 32.48 31.04 29.09 32.43 31.51 33.01 32.74 33.50
53.27 54.24 53.72 51.99 51.08 49.91 47.51 42.07 43.41 42.55 38.07 37.22 39.25 37.67 37.78 37.28 36.82 36.40 34.73 33.08 33.41 33.20 29.54 27.84 27.48 26.85 25.00 25.28 24.48 27.11 25.68 29.14 27.19 28.17 28.10 32.50 32.22 31.98 32.17 33.82 33.59 32.94 33.83 34.31
52.52 53.45 54.11 52.42 51.69 50.53 47.59 42.61 41.84 41.18 37.97 37.12 37.80 36.39 36.95 38.99 37.65 38.35 35.37 35.33 36.09 34.63 34.94 31.55 29.80 28.04 28.54 25.20 24.97 24.44 27.64 29.75 28.98 29.56 29.52 31.96 34.65 33.15 33.29 34.03 33.93 34.69 34.89 35.50
52.57 53.76 54.12 52.37 51.78 50.94 47.82 42.92 42.45 40.90 38.20 33.52 34.62 38.29 35.03 37.17 38.09 38.16 38.51 37.67 37.66 36.91 35.80 32.56 31.04 29.05 31.97 28.45 28.35 27.86 30.16 30.01 28.89 28.27 31.27 30.98 33.76 33.59 33.32 34.31 34.28 34.64 34.67 35.40
48.78 51.46 52.47 51.78 51.62 50.92 48.07 46.03 45.28 44.64 39.84 34.76 34.96 35.73 35.14 36.48 36.65 36.98 37.15 37.60 36.32 34.74 33.27 32.01 31.57 32.70 32.02 30.67 30.12 29.58 31.41 30.83 29.07 28.88 33.06 32.55 32.74 34.12 34.44 34.16 34.84 35.40 34.79 33.24
46.25 47.08 48.55 51.03 51.40 50.05 47.13 42.71 45.31 45.97 44.84 38.93 33.56 34.34 32.19 35.19 35.68 35.96 35.61 36.31 35.58 34.73 33.47 31.67 33.11 35.33 32.15 27.42 26.82 34.71 34.45 33.51 34.36 33.44 31.95 33.09 33.06 34.51 34.83 34.34 34.17 34.61 34.23 33.43
45.64 45.85 45.77 46.53 50.70 48.55 44.16 42.14 44.37 46.66 44.98 40.12 34.78 33.68 33.51 32.43 33.03 33.90 34.06 34.60 33.72 33.96 32.84 31.38 31.90 32.44 31.25 28.06 27.30 35.78 34.88 34.77 34.46 34.03 32.23 32.54 33.80 34.04 34.50 34.73 34.58 36.72 33.03 32.70
44.49 45.26 45.36 46.02 49.31 48.08 44.63 45.55 47.02 46.61 43.14 41.18 33.75 32.56 29.89 31.72 29.88 29.46 32.39 31.23 31.84 31.81 30.71 30.92 30.74 31.38 29.98 27.82 33.20 34.93 33.44 33.69 33.44 34.05 33.90 33.68 32.93 32.66 32.81 32.38 32.26 31.22 30.63 29.87
44.99 45.87 46.89 44.77 44.47 41.77 42.65 47.18 46.87 45.93 42.61 35.01 33.03 31.62 28.90 31.46 29.68 29.77 30.64 31.24 28.62 29.80 28.09 28.75 30.88 28.24 26.75 31.83 32.44 32.60 32.54 32.80 33.60 33.61 31.84 31.05 31.39 32.02 31.69 31.74 31.20 30.94 30.78 29.79
45.57 43.39 39.55 36.07 41.64 46.53 46.31 42.96 39.79 39.06 39.73 37.14 33.00 33.63 27.80 29.52 28.77 29.16 29.51 30.45 29.66 25.39 27.63 29.96 30.03 28.77 32.49 32.36 31.95 32.36 32.49 32.19 32.30 27.30 28.25 29.50 29.66 31.36 31.32 31.81 32.05 32.08 31.44 30.34
38.67 36.54 35.95 41.53 45.46 42.27 38.13 32.31 32.39 32.38 31.33 33.87 34.61 34.30 29.61 31.86 28.21 29.81 33.00 30.67 30.23 23.84 24.29 28.25 27.66 24.60 29.16 30.60 29.45 30.85 30.56 30.65 31.20 31.87 32.29 32.98 32.61 31.80 31.39 30.43 30.43 30.74 30.46 28.49
37.05 37.49 40.94 40.20 36.25 33.42 31.09 29.88 31.53 31.27 30.48 32.95 32.36 33.40 33.08 30.54 34.03 32.61 31.31 29.93 29.60 20.95 28.96 27.19 22.25 24.77 28.75 28.88 27.87 29.13 28.33 29.41 31.23 30.44 30.39 29.51 31.35 31.40 30.80 29.10 26.86 27.19 26.75 25.56
36.30 32.57 30.92 28.87 30.43 28.10 25.24 23.10 27.29 29.07 31.30 32.62 32.25 30.75 32.97 32.73 34.06 31.73 30.71 27.38 25.26 27.38 25.24 23.56 21.22 26.75 28.76 27.69 26.79 28.08 27.85 29.03 29.81 30.35 29.90 29.37 28.59 28.20 27.15 25.97 25.67 25.70 25.14 25.47
27.65 21.89 19.18 18.50 18.74 24.54 26.42 25.44 28.12 30.41 31.53 31.80 32.01 30.76 30.98 31.77 30.80 30.88 27.43 27.66 27.11 21.28 16.98 15.98 20.65 25.84 27.34 26.51 26.73 27.39 26.77 27.16 27.19 24.17 24.05 27.36 28.39 26.62 26.63 26.25 25.74 25.28 24.75 25.22
24.09 22.73 13.10 18.06 23.65 27.06 27.56 26.88 27.90 31.17 33.73 32.42 31.49 31.44 31.43 29.30 29.60 29.86 26.16 23.62 23.02 24.29 23.09 25.62 26.27 27.20 25.80 25.68 26.16 26.36 26.54 26.08 25.76 24.52 21.05 19.59 21.79 24.75 24.54 24.89 24.71 24.49 24.38 24.26
20.98 23.29 18.09 25.10 21.98 25.19 26.68 27.00 28.02 30.10 32.36 32.30 31.93 30.62 27.80 23.93 25.01 24.36 22.12 21.53 20.08 23.33 27.34 29.65 27.89 27.92 26.52 25.90 26.84 27.00 26.69 25.43 25.79 25.31 23.98 21.32 20.93 23.82 23.29 23.24 23.57 23.68 23.97 23.59
13.94 14.80 24.54 24.25 24.28 23.52 24.92 27.41 27.80 31.41 28.46 25.32 27.13 21.68 22.62 22.92 23.57 22.75 25.45 22.18 24.08 25.04 25.14 25.74 28.10 27.60 27.89 26.92 26.88 28.00 27.67 26.25 26.00 24.54 24.55 22.01 18.75 14.01 16.68 18.64 22.87 22.68 23.99 22.88

GFSNW_sfc_wetblb_174.txt.gz
Wetbulb
53.13 53.85 53.20 53.23 53.51 52.84 46.96 42.30 36.32 43.56 43.88 35.23 31.10 29.21 32.13 38.73 35.67 36.89 36.10 34.27 32.96 30.53 30.24 29.66 30.00 29.01 31.25 35.86 35.28 31.04 30.77 29.65 26.10 30.45 36.04 37.46 34.03 29.83 31.20 26.40 21.85 21.52 20.65 20.98
53.36 53.87 53.38 53.13 53.28 52.65 41.84 40.31 38.67 43.53 41.70 30.97 29.10 30.65 34.60 35.97 34.60 35.04 34.33 33.53 34.85 32.66 30.20 28.19 31.17 32.26 35.75 36.51 33.60 31.06 31.23 26.17 22.57 26.30 30.75 32.00 30.19 33.70 29.99 27.80 25.73 20.96 20.47 22.15
53.09 53.79 53.77 53.58 53.32 52.64 41.84 37.48 35.33 37.92 37.65 33.92 29.70 29.65 31.99 31.96 35.84 34.81 35.27 33.90 32.85 30.72 28.52 30.39 29.69 31.14 35.52 35.16 34.34 41.39 35.83 26.81 26.16 23.76 26.71 28.70 26.56 27.69 28.67 27.17 20.97 21.92 21.54 22.07
52.91 53.80 53.81 53.69 53.59 52.78 42.59 36.79 36.17 37.47 32.47 32.71 30.42 31.64 31.13 29.53 30.46 34.27 33.64 31.53 31.81 29.30 26.50 27.31 27.65 29.48 31.38 34.23 36.39 33.28 31.35 25.26 24.05 25.94 27.40 28.50 28.81 28.52 28.20 26.46 25.75 22.65 23.41 24.14
53.01 53.70 53.78 53.72 53.07 52.45 41.36 37.11 35.35 34.81 32.74 32.50 30.90 32.11 30.55 31.55 31.41 32.01 30.52 30.94 31.64 30.74 27.68 29.21 26.21 28.59 27.23 27.04 31.20 28.39 29.65 25.51 25.39 24.09 26.89 26.38 26.82 27.12 28.11 27.91 24.65 25.01 25.54 25.48
53.03 53.62 53.72 53.66 52.27 49.32 40.12 38.38 38.64 38.02 35.43 31.10 30.80 30.70 31.75 32.92 33.77 34.20 34.16 33.05 31.44 30.36 31.76 33.16 31.76 32.32 32.25 30.03 27.67 28.46 27.24 25.63 23.91 21.65 25.13 25.79 23.33 24.94 26.84 26.81 26.99 27.08 25.64 28.62
53.21 53.77 53.98 53.65 52.01 50.99 41.21 39.02 39.51 37.22 33.69 32.86 32.27 33.65 33.69 33.62 33.21 31.31 33.94 33.44 31.07 33.24 34.79 33.67 32.34 30.37 31.66 30.79 29.69 30.06 26.17 25.65 24.44 20.85 24.35 18.20 26.20 26.92 28.45 27.67 28.41 27.76 27.43 28.39
53.50 53.96 54.21 53.67 51.88 52.09 41.85 41.00 40.04 37.47 33.37 34.41 33.28 34.00 33.82 32.53 32.28 32.10 33.83 34.72 34.52 34.40 32.23 28.76 27.56 26.63 26.77 28.16 29.88 27.90 28.37 26.05 22.57 21.10 20.19 24.03 25.52 26.31 27.77 26.26 26.59 29.62 29.70 30.57
53.40 53.95 54.29 53.50 51.78 51.68 42.90 41.26 41.71 38.92 35.01 34.36 36.32 34.93 34.14 31.82 29.56 30.78 33.54 35.22 35.37 33.58 30.23 28.02 23.48 22.65 23.41 24.10 24.95 28.67 29.49 27.47 25.25 21.62 19.72 18.95 26.04 29.10 29.72 30.64 25.69 31.28 31.86 31.09
53.64 54.05 54.11 52.89 51.48 51.10 44.34 41.45 41.97 40.14 34.14 36.41 36.37 35.43 34.82 35.12 32.09 31.01 30.49 31.51 31.46 32.58 27.81 26.42 24.32 24.50 25.40 22.85 22.35 23.79 24.93 24.27 22.47 23.33 20.90 24.90 28.89 30.24 31.58 23.48 27.95 31.63 32.32 31.87
53.86 54.20 54.04 52.53 51.27 50.69 46.28 42.19 42.41 40.38 35.73 36.67 38.11 37.78 36.13 35.41 34.53 32.12 33.02 32.04 31.42 29.61 27.11 26.30 26.31 25.10 25.20 22.50 24.00 23.49 25.21 22.75 22.01 23.01 20.59 20.57 31.33 30.16 27.55 31.66 30.74 31.66 31.25 32.10
53.68 53.82 53.86 52.39 51.29 50.72 47.78 41.96 42.97 42.12 37.80 36.87 38.44 37.28 37.09 37.03 37.17 36.64 34.39 32.75 32.79 32.96 29.19 27.39 26.94 26.90 23.79 23.61 23.52 25.26 25.56 28.04 26.02 26.89 27.30 31.43 31.76 30.88 32.43 32.75 32.95 31.74 31.80 32.58
53.65 54.01 54.04 52.55 51.62 50.72 47.63 42.52 41.92 40.90 37.94 36.97 37.35 35.65 36.81 38.68 37.50 38.12 35.53 35.06 35.73 34.41 34.39 31.07 29.35 27.69 27.94 24.90 24.57 23.21 26.31 28.69 28.04 28.55 29.16 30.74 32.53 32.78 31.75 33.17 33.20 33.53 33.47 34.08
53.22 54.21 53.95 52.47 51.59 50.83 47.71 42.95 42.36 40.76 37.92 34.29 34.35 37.90 34.71 37.12 37.77 37.83 38.18 37.37 36.94 36.27 34.91 32.26 31.25 28.95 31.13 27.61 27.52 27.20 29.26 29.09 28.04 27.97 30.79 30.44 32.04 32.33 33.93 33.33 34.06 33.54 33.68 34.73
52.57 53.10 53.39 52.05 51.26 50.38 47.82 45.89 43.44 42.77 39.83 35.01 34.43 35.44 34.56 36.03 36.32 36.24 36.42 37.06 35.53 34.06 32.54 31.14 30.81 31.73 30.69 29.68 29.78 29.26 30.26 29.82 28.70 28.39 32.31 31.93 31.96 32.58 33.08 33.23 34.23 34.76 34.40 32.83
48.97 52.17 51.93 51.30 50.66 49.73 46.96 42.55 45.75 45.70 43.00 36.63 30.65 33.50 32.23 34.95 35.52 35.65 35.28 35.68 34.88 33.95 32.76 30.97 31.96 34.20 30.95 26.36 26.40 33.86 32.80 32.03 32.89 32.06 31.24 32.16 32.89 33.88 33.87 33.90 33.94 32.89 33.78 33.42
46.04 46.53 50.30 50.85 50.29 48.33 44.07 42.05 43.52 46.12 44.55 39.43 34.40 31.28 33.86 33.29 32.78 33.54 33.51 34.11 33.29 33.29 32.03 30.90 31.12 31.89 30.78 28.11 27.07 34.10 33.44 33.68 33.98 31.95 31.59 31.16 31.93 32.75 34.12 33.13 33.32 36.20 32.98 32.59
45.24 45.17 46.68 50.74 49.67 47.98 44.60 45.20 46.76 46.64 42.98 40.38 32.82 32.24 29.44 33.63 31.11 30.83 31.37 30.90 31.26 31.32 30.13 30.27 30.33 30.57 29.30 28.16 32.00 33.21 32.86 33.58 32.92 33.62 33.68 32.74 32.56 32.99 31.63 31.74 32.03 30.93 30.68 29.95
45.44 46.81 48.16 45.67 44.10 41.77 42.04 47.45 46.94 45.93 42.69 35.39 33.17 31.63 27.58 31.92 29.84 31.29 31.37 31.06 28.78 29.98 28.67 28.89 30.82 27.90 26.60 30.12 28.82 29.01 30.30 31.17 32.22 32.30 32.19 32.97 31.71 32.12 30.69 30.89 30.69 30.32 29.78 29.26
45.50 42.41 37.89 35.66 41.34 46.65 46.49 42.62 39.87 39.42 39.69 37.29 32.70 33.43 28.51 29.07 28.93 28.72 28.24 29.33 28.25 26.35 28.18 29.77 30.12 29.55 31.28 30.02 29.10 28.63 29.45 29.72 29.80 25.31 28.42 29.27 28.91 30.91 29.55 30.67 31.48 31.62 31.43 30.04
38.97 36.25 35.12 41.47 45.59 41.28 36.99 32.06 32.12 32.16 31.16 33.72 34.47 34.49 28.96 31.04 26.51 28.28 31.62 30.39 30.08 23.00 24.86 28.90 27.80 24.14 28.13 29.38 27.86 27.75 28.39 28.13 29.38 29.60 30.39 30.34 30.93 31.45 31.66 31.28 31.14 30.83 30.49 29.46
37.75 38.22 40.91 40.26 34.14 32.10 30.02 29.22 31.22 30.86 29.81 33.09 32.01 32.98 32.59 30.86 32.92 32.24 31.47 29.97 29.39 21.21 26.44 27.42 23.41 24.80 27.96 27.77 26.93 26.68 26.92 27.17 28.90 28.82 29.26 29.42 30.64 29.74 30.23 29.54 27.02 28.08 27.82 25.79
36.39 33.47 31.69 29.82 30.27 25.98 24.45 23.76 27.55 28.78 31.18 32.38 32.38 30.90 33.27 32.78 34.19 31.71 30.92 27.67 25.72 28.40 25.44 24.25 21.96 26.05 27.90 26.80 26.10 26.41 27.02 26.83 27.47 27.10 27.89 29.74 28.49 28.29 27.44 26.26 25.32 24.84 24.32 24.51
27.78 23.46 22.64 22.82 22.28 25.30 25.46 26.12 27.47 29.82 31.42 31.82 32.30 30.58 30.59 31.76 30.83 30.80 27.31 27.23 25.57 17.61 14.73 17.58 23.95 26.18 27.37 26.64 26.71 26.68 26.23 26.13 25.75 22.46 21.09 24.47 27.31 25.83 25.98 25.63 24.67 24.27 23.78 24.38
22.97 22.30 16.43 19.01 25.59 26.99 27.40 27.32 28.67 30.82 33.48 32.16 31.22 31.11 31.48 29.86 29.74 29.90 26.15 21.03 20.04 21.46 20.21 25.35 26.66 27.67 26.42 26.10 26.23 25.61 25.71 25.08 24.49 24.26 19.74 17.50 19.54 24.02 23.67 23.93 23.84 23.82 23.83 23.66
20.17 19.98 19.21 25.17 24.21 25.53 25.98 26.04 26.65 29.96 31.44 31.79 31.38 29.79 28.12 26.71 27.39 24.54 19.93 21.08 21.59 20.51 26.77 27.03 26.57 27.22 25.50 25.12 25.94 25.88 26.57 25.32 25.08 25.50 24.45 21.10 21.56 23.77 23.21 22.63 22.94 23.00 23.28 22.87
12.75 14.88 24.25 25.14 24.87 23.96 24.91 26.55 26.60 30.05 27.74 25.05 25.71 21.70 21.65 21.63 19.19 19.65 24.28 19.81 21.80 23.80 24.75 25.53 27.79 27.09 26.76 26.82 26.93 26.92 26.87 25.93 24.48 24.34 24.25 21.64 18.21 13.20 15.80 17.92 22.23 21.62 22.73 20.91